Time,TemperatureF,DewpointF,PressureIn,WindDirection,WindDirectionDegrees,WindSpeedMPH,WindSpeedGustMPH,Humidity,HourlyPrecipIn,Conditions,Clouds,dailyrainin,SoftwareType,DateUTC
2013-02-17 00:00:00,20.3,14.2,29.88,NW,317,9.0,10.0,77,0.00,,,0.00,Wunderground v.1.15,2013-02-17 05:00:00,
2013-02-17 00:01:00,20.3,14.2,29.88,NNW,333,14.0,14.0,77,0.00,,,0.00,Wunderground v.1.15,2013-02-17 05:01:00,
2013-02-17 00:02:00,20.2,14.1,29.88,NW,307,5.0,14.0,77,0.00,,,0.00,Wunderground v.1.15,2013-02-17 05:02:00,
2013-02-17 00:07:00,20.1,14.0,29.88,NW,312,6.0,14.0,77,0.00,,,0.00,Wunderground v.1.15,2013-02-17 05:07:00,
2013-02-17 00:10:00,20.1,14.0,29.88,WNW,295,7.0,9.0,77,0.00,,,0.00,Wunderground v.1.15,2013-02-17 05:10:00,
2013-02-17 00:12:00,20.0,13.9,29.88,NW,325,8.0,9.0,77,0.00,,,0.00,Wunderground v.1.15,2013-02-17 05:12:00,
2013-02-17 00:17:00,20.0,13.9,29.87,WNW,298,8.0,11.0,77,0.00,,,0.00,Wunderground v.1.15,2013-02-17 05:17:00,
2013-02-17 00:18:00,20.0,13.9,29.87,WNW,302,7.0,11.0,77,0.00,,,0.00,Wunderground v.1.15,2013-02-17 05:18:00,
2013-02-17 00:19:00,20.0,13.9,29.88,West,270,14.0,14.0,77,0.00,,,0.00,Wunderground v.1.15,2013-02-17 05:19:00,
2013-02-17 00:23:00,20.0,13.9,29.87,WNW,290,6.0,10.0,77,0.00,,,0.00,Wunderground v.1.15,2013-02-17 05:23:00,
2013-02-17 00:24:00,20.0,13.9,29.87,WNW,287,5.0,10.0,77,0.00,,,0.00,Wunderground v.1.15,2013-02-17 05:24:00,
2013-02-17 00:28:00,19.9,13.9,29.87,West,277,9.0,15.0,77,0.00,,,0.00,Wunderground v.1.15,2013-02-17 05:28:00,
2013-02-17 00:29:00,19.9,13.9,29.87,West,270,7.0,15.0,77,0.00,,,0.00,Wunderground v.1.15,2013-02-17 05:29:00,
2013-02-17 00:30:00,19.9,13.9,29.87,West,277,4.0,8.0,77,0.00,,,0.00,Wunderground v.1.15,2013-02-17 05:30:00,
2013-02-17 00:31:00,19.8,13.8,29.87,NW,309,8.0,8.0,77,0.00,,,0.00,Wunderground v.1.15,2013-02-17 05:31:00,
2013-02-17 00:33:00,19.8,13.8,29.88,WNW,291,9.0,9.0,77,0.00,,,0.00,Wunderground v.1.15,2013-02-17 05:33:00,
2013-02-17 00:34:00,19.8,13.8,29.88,NNW,336,4.0,9.0,77,0.00,,,0.00,Wunderground v.1.15,2013-02-17 05:34:00,
2013-02-17 00:36:00,19.8,13.8,29.88,WNW,297,8.0,9.0,77,0.00,,,0.00,Wunderground v.1.15,2013-02-17 05:36:00,
2013-02-17 00:38:00,19.8,13.8,29.88,WNW,295,8.0,9.0,77,0.00,,,0.00,Wunderground v.1.15,2013-02-17 05:38:00,
2013-02-17 00:41:00,19.8,13.5,29.88,NW,304,7.0,13.0,76,0.00,,,0.00,Wunderground v.1.15,2013-02-17 05:41:00,
2013-02-17 00:42:00,19.9,13.6,29.88,WNW,284,6.0,13.0,76,0.00,,,0.00,Wunderground v.1.15,2013-02-17 05:42:00,
2013-02-17 00:46:00,20.0,13.6,29.88,West,269,7.0,13.0,76,0.00,,,0.00,Wunderground v.1.15,2013-02-17 05:46:00,
2013-02-17 00:48:00,20.0,13.9,29.88,NW,304,7.0,13.0,77,0.00,,,0.00,Wunderground v.1.15,2013-02-17 05:48:00,
2013-02-17 00:49:00,20.0,13.9,29.88,West,277,7.0,13.0,77,0.00,,,0.00,Wunderground v.1.15,2013-02-17 05:49:00,
2013-02-17 00:50:00,20.0,13.9,29.88,NW,315,7.0,8.0,77,0.00,,,0.00,Wunderground v.1.15,2013-02-17 05:50:00,
2013-02-17 00:52:00,20.0,14.2,29.88,WNW,301,12.0,12.0,78,0.00,,,0.00,Wunderground v.1.15,2013-02-17 05:52:00,
2013-02-17 00:54:00,20.0,14.2,29.88,WNW,283,6.0,13.0,78,0.00,,,0.00,Wunderground v.1.15,2013-02-17 05:54:00,
2013-02-17 00:57:00,19.8,14.6,29.88,WNW,302,12.0,13.0,80,0.00,,,0.00,Wunderground v.1.15,2013-02-17 05:57:00,
2013-02-17 00:58:00,19.8,14.6,29.88,WNW,296,18.0,18.0,80,0.00,,,0.00,Wunderground v.1.15,2013-02-17 05:58:00,
2013-02-17 00:59:00,19.7,14.8,29.88,WNW,298,12.0,18.0,81,0.00,,,0.00,Wunderground v.1.15,2013-02-17 05:59:00,
2013-02-17 01:00:00,19.6,15.0,29.88,West,277,10.0,10.0,82,0.00,,,0.00,Wunderground v.1.15,2013-02-17 06:00:00,
2013-02-17 01:03:00,19.3,15.3,29.88,NW,306,14.0,15.0,84,0.00,,,0.00,Wunderground v.1.15,2013-02-17 06:03:00,
2013-02-17 01:05:00,19.2,15.4,29.88,West,263,9.0,16.0,85,0.00,,,0.00,Wunderground v.1.15,2013-02-17 06:05:00,
2013-02-17 01:06:00,19.1,15.3,29.89,WNW,300,10.0,16.0,85,0.00,,,0.00,Wunderground v.1.15,2013-02-17 06:06:00,
2013-02-17 01:07:00,19.0,15.2,29.88,West,277,13.0,16.0,85,0.00,,,0.00,Wunderground v.1.15,2013-02-17 06:07:00,
2013-02-17 01:12:00,18.9,15.4,29.88,WNW,298,8.0,12.0,86,0.00,,,0.00,Wunderground v.1.15,2013-02-17 06:12:00,
2013-02-17 01:13:00,18.9,15.4,29.88,WNW,298,12.0,12.0,86,0.00,,,0.00,Wunderground v.1.15,2013-02-17 06:13:00,
2013-02-17 01:14:00,18.8,15.3,29.88,WNW,288,8.0,12.0,86,0.00,,,0.00,Wunderground v.1.15,2013-02-17 06:14:00,
2013-02-17 01:17:00,18.8,15.3,29.88,WNW,292,8.0,12.0,86,0.00,,,0.00,Wunderground v.1.15,2013-02-17 06:17:00,
2013-02-17 01:21:00,18.7,14.9,29.88,NW,324,8.0,11.0,85,0.00,,,0.00,Wunderground v.1.15,2013-02-17 06:21:00,
2013-02-17 01:22:00,18.7,14.9,29.88,WNW,296,4.0,11.0,85,0.00,,,0.00,Wunderground v.1.15,2013-02-17 06:22:00,
2013-02-17 01:23:00,18.7,14.9,29.88,WNW,303,8.0,11.0,85,0.00,,,0.00,Wunderground v.1.15,2013-02-17 06:23:00,
2013-02-17 01:27:00,18.8,14.8,29.88,WNW,295,10.0,13.0,84,0.00,,,0.00,Wunderground v.1.15,2013-02-17 06:27:00,
2013-02-17 01:28:00,18.8,14.8,29.89,WSW,254,10.0,13.0,84,0.00,,,0.00,Wunderground v.1.15,2013-02-17 06:28:00,
2013-02-17 01:29:00,18.8,14.8,29.88,WNW,291,9.0,13.0,84,0.00,,,0.00,Wunderground v.1.15,2013-02-17 06:29:00,
2013-02-17 01:32:00,18.8,14.8,29.89,WNW,292,5.0,13.0,84,0.00,,,0.00,Wunderground v.1.15,2013-02-17 06:32:00,
2013-02-17 01:33:00,18.8,14.8,29.89,WNW,298,9.0,13.0,84,0.00,,,0.00,Wunderground v.1.15,2013-02-17 06:33:00,
2013-02-17 01:36:00,18.8,14.8,29.89,NNW,333,13.0,13.0,84,0.00,,,0.00,Wunderground v.1.15,2013-02-17 06:36:00,
2013-02-17 01:38:00,18.7,14.7,29.89,WNW,300,10.0,13.0,84,0.00,,,0.00,Wunderground v.1.15,2013-02-17 06:38:00,
2013-02-17 01:40:00,18.7,14.7,29.89,NW,320,6.0,9.0,84,0.00,,,0.00,Wunderground v.1.15,2013-02-17 06:40:00,
2013-02-17 01:45:00,18.6,14.6,29.89,WNW,301,6.0,9.0,84,0.00,,,0.00,Wunderground v.1.15,2013-02-17 06:45:00,
2013-02-17 01:46:00,18.6,14.0,29.89,WNW,296,9.0,14.0,83,0.00,,,0.00,weatherlink.com 1.10,2013-02-17 06:46:00,
2013-02-17 01:47:00,18.6,14.3,29.89,WNW,286,5.0,10.0,83,0.00,,,0.00,Wunderground v.1.15,2013-02-17 06:47:00,
2013-02-17 01:50:00,18.6,14.3,29.89,West,263,4.0,6.0,83,0.00,,,0.00,Wunderground v.1.15,2013-02-17 06:50:00,
2013-02-17 01:55:00,18.6,14.3,29.89,NW,312,6.0,10.0,83,0.00,,,0.00,Wunderground v.1.15,2013-02-17 06:55:00,
2013-02-17 01:56:00,18.6,14.6,29.89,NW,324,12.0,12.0,84,0.00,,,0.00,Wunderground v.1.15,2013-02-17 06:56:00,
2013-02-17 01:57:00,18.6,14.6,29.89,WNW,292,9.0,12.0,84,0.00,,,0.00,Wunderground v.1.15,2013-02-17 06:57:00,
2013-02-17 01:58:00,18.6,14.3,29.89,NW,313,7.0,12.0,83,0.00,,,0.00,Wunderground v.1.15,2013-02-17 06:58:00,
2013-02-17 02:00:00,18.5,14.2,29.89,WNW,294,9.0,11.0,83,0.00,,,0.00,Wunderground v.1.15,2013-02-17 07:00:00,
2013-02-17 02:01:00,18.5,14.2,29.89,NW,312,10.0,13.0,83,0.00,,,0.00,Wunderground v.1.15,2013-02-17 07:01:00,
2013-02-17 02:02:00,18.5,14.2,29.89,NW,306,11.0,13.0,83,0.00,,,0.00,Wunderground v.1.15,2013-02-17 07:02:00,
2013-02-17 02:03:00,18.5,14.2,29.89,WNW,298,9.0,13.0,83,0.00,,,0.00,Wunderground v.1.15,2013-02-17 07:03:00,
2013-02-17 02:06:00,18.4,14.1,29.89,NW,312,7.0,17.0,83,0.00,,,0.00,Wunderground v.1.15,2013-02-17 07:06:00,
2013-02-17 02:07:00,18.4,14.1,29.89,WNW,294,5.0,17.0,83,0.00,,,0.00,Wunderground v.1.15,2013-02-17 07:07:00,
2013-02-17 02:08:00,18.4,14.1,29.89,NW,309,8.0,17.0,83,0.00,,,0.00,Wunderground v.1.15,2013-02-17 07:08:00,
2013-02-17 02:11:00,18.3,13.7,29.89,WNW,297,8.0,14.0,82,0.00,,,0.00,Wunderground v.1.15,2013-02-17 07:11:00,
2013-02-17 02:13:00,18.3,13.4,29.89,NW,308,15.0,19.0,81,0.00,,,0.00,Wunderground v.1.15,2013-02-17 07:13:00,
2013-02-17 02:17:00,18.2,13.1,29.89,WNW,298,5.0,19.0,80,0.00,,,0.00,Wunderground v.1.15,2013-02-17 07:17:00,
2013-02-17 02:18:00,18.2,13.1,29.89,NW,313,10.0,19.0,80,0.00,,,0.00,Wunderground v.1.15,2013-02-17 07:18:00,
2013-02-17 02:22:00,18.0,12.9,29.89,WNW,303,12.0,16.0,80,0.00,,,0.00,Wunderground v.1.15,2013-02-17 07:22:00,
2013-02-17 02:23:00,18.0,12.9,29.89,WNW,288,9.0,16.0,80,0.00,,,0.00,Wunderground v.1.15,2013-02-17 07:23:00,
2013-02-17 02:24:00,18.0,12.9,29.89,WNW,298,10.0,16.0,80,0.00,,,0.00,Wunderground v.1.15,2013-02-17 07:24:00,
2013-02-17 02:27:00,17.8,12.7,29.89,WNW,295,14.0,16.0,80,0.00,,,0.00,Wunderground v.1.15,2013-02-17 07:27:00,
2013-02-17 02:28:00,17.8,12.7,29.89,West,273,14.0,17.0,80,0.00,,,0.00,Wunderground v.1.15,2013-02-17 07:28:00,
2013-02-17 02:29:00,17.8,12.7,29.89,WNW,294,11.0,17.0,80,0.00,,,0.00,Wunderground v.1.15,2013-02-17 07:29:00,
2013-02-17 02:33:00,17.6,12.5,29.89,WNW,286,7.0,13.0,80,0.00,,,0.00,Wunderground v.1.15,2013-02-17 07:33:00,
2013-02-17 02:34:00,17.6,12.5,29.89,WNW,286,11.0,13.0,80,0.00,,,0.00,Wunderground v.1.15,2013-02-17 07:34:00,
2013-02-17 02:38:00,17.5,12.4,29.89,NNW,335,6.0,13.0,80,0.00,,,0.00,Wunderground v.1.15,2013-02-17 07:38:00,
2013-02-17 02:39:00,17.4,12.3,29.89,NW,310,9.0,13.0,80,0.00,,,0.00,Wunderground v.1.15,2013-02-17 07:39:00,
2013-02-17 02:40:00,17.4,12.3,29.89,NW,313,7.0,8.0,80,0.00,,,0.00,Wunderground v.1.15,2013-02-17 07:40:00,
2013-02-17 02:43:00,17.4,12.3,29.89,WNW,288,6.0,15.0,80,0.00,,,0.00,Wunderground v.1.15,2013-02-17 07:43:00,
2013-02-17 02:45:00,17.3,12.2,29.89,WNW,293,7.0,15.0,80,0.00,,,0.00,Wunderground v.1.15,2013-02-17 07:45:00,
2013-02-17 02:46:00,17.3,12.2,29.89,NW,304,7.0,15.0,80,0.00,,,0.00,Wunderground v.1.15,2013-02-17 07:46:00,
2013-02-17 02:48:00,17.3,12.2,29.89,WNW,296,6.0,15.0,80,0.00,,,0.00,Wunderground v.1.15,2013-02-17 07:48:00,
2013-02-17 02:51:00,17.3,11.9,29.89,NW,304,10.0,11.0,79,0.00,,,0.00,Wunderground v.1.15,2013-02-17 07:51:00,
2013-02-17 02:53:00,17.2,11.8,29.89,NNE,12,7.0,12.0,79,0.00,,,0.00,Wunderground v.1.15,2013-02-17 07:53:00,
2013-02-17 02:54:00,17.2,11.8,29.89,WNW,296,7.0,12.0,79,0.00,,,0.00,Wunderground v.1.15,2013-02-17 07:54:00,
2013-02-17 02:56:00,17.2,11.8,29.89,WNW,287,7.0,12.0,79,0.00,,,0.00,Wunderground v.1.15,2013-02-17 07:56:00,
2013-02-17 02:58:00,17.2,11.8,29.89,North,355,4.0,12.0,79,0.00,,,0.00,Wunderground v.1.15,2013-02-17 07:58:00,
2013-02-17 02:59:00,17.2,11.8,29.89,West,261,4.0,12.0,79,0.00,,,0.00,Wunderground v.1.15,2013-02-17 07:59:00,
2013-02-17 03:01:00,17.1,11.7,29.89,NW,321,2.0,7.0,79,0.00,,,0.00,Wunderground v.1.15,2013-02-17 08:01:00,
2013-02-17 03:03:00,17.1,11.7,29.89,WNW,297,4.0,9.0,79,0.00,,,0.00,Wunderground v.1.15,2013-02-17 08:03:00,
2013-02-17 03:04:00,17.0,11.6,29.89,WNW,288,3.0,9.0,79,0.00,,,0.00,Wunderground v.1.15,2013-02-17 08:04:00,
2013-02-17 03:06:00,17.0,11.3,29.89,NW,319,8.0,9.0,78,0.00,,,0.00,Wunderground v.1.15,2013-02-17 08:06:00,
2013-02-17 03:07:00,17.0,11.0,29.89,NW,306,5.0,9.0,77,0.00,,,0.00,Wunderground v.1.15,2013-02-17 08:07:00,
2013-02-17 03:09:00,17.0,11.0,29.90,WNW,292,4.0,9.0,77,0.00,,,0.00,Wunderground v.1.15,2013-02-17 08:09:00,
2013-02-17 03:12:00,17.0,10.4,29.89,WNW,299,9.0,15.0,75,0.00,,,0.00,Wunderground v.1.15,2013-02-17 08:12:00,
2013-02-17 03:14:00,17.1,10.2,29.90,WNW,298,6.0,15.0,74,0.00,,,0.00,Wunderground v.1.15,2013-02-17 08:14:00,
2013-02-17 03:15:00,17.1,10.2,29.90,NNW,329,9.0,15.0,74,0.00,,,0.00,Wunderground v.1.15,2013-02-17 08:15:00,
2013-02-17 03:17:00,17.1,10.2,29.90,WNW,298,8.0,15.0,74,0.00,,,0.00,Wunderground v.1.15,2013-02-17 08:17:00,
2013-02-17 03:18:00,17.1,9.9,29.90,NW,308,10.0,15.0,73,0.00,,,0.00,Wunderground v.1.15,2013-02-17 08:18:00,
2013-02-17 03:19:00,17.1,9.6,29.89,NW,312,12.0,15.0,72,0.00,,,0.00,Wunderground v.1.15,2013-02-17 08:19:00,
2013-02-17 03:20:00,17.1,9.6,29.89,NW,304,10.0,10.0,72,0.00,,,0.00,Wunderground v.1.15,2013-02-17 08:20:00,
2013-02-17 03:22:00,17.1,9.3,29.89,WNW,285,7.0,13.0,71,0.00,,,0.00,Wunderground v.1.15,2013-02-17 08:22:00,
2013-02-17 03:24:00,17.1,9.0,29.89,WSW,258,14.0,14.0,70,0.00,,,0.00,Wunderground v.1.15,2013-02-17 08:24:00,
2013-02-17 03:25:00,17.1,9.0,29.89,WNW,300,6.0,14.0,70,0.00,,,0.00,Wunderground v.1.15,2013-02-17 08:25:00,
2013-02-17 03:27:00,17.1,9.0,29.89,West,269,3.0,14.0,70,0.00,,,0.00,Wunderground v.1.15,2013-02-17 08:27:00,
2013-02-17 03:29:00,17.1,8.3,29.89,West,260,11.0,14.0,68,0.00,,,0.00,Wunderground v.1.15,2013-02-17 08:29:00,
2013-02-17 03:30:00,17.1,8.3,29.89,NW,319,8.0,13.0,68,0.00,,,0.00,Wunderground v.1.15,2013-02-17 08:30:00,
2013-02-17 03:32:00,17.1,8.0,29.89,WNW,299,7.0,13.0,67,0.00,,,0.00,Wunderground v.1.15,2013-02-17 08:32:00,
2013-02-17 03:34:00,17.0,8.3,29.89,WNW,303,8.0,13.0,68,0.00,,,0.00,Wunderground v.1.15,2013-02-17 08:34:00,
2013-02-17 03:36:00,17.0,7.6,29.89,NW,316,10.0,15.0,66,0.00,,,0.00,Wunderground v.1.15,2013-02-17 08:36:00,
2013-02-17 03:37:00,17.0,7.6,29.89,NW,311,11.0,15.0,66,0.00,,,0.00,Wunderground v.1.15,2013-02-17 08:37:00,
2013-02-17 03:39:00,17.0,7.6,29.89,West,281,7.0,15.0,66,0.00,,,0.00,Wunderground v.1.15,2013-02-17 08:39:00,
2013-02-17 03:40:00,17.1,7.7,29.89,NW,306,8.0,10.0,66,0.00,,,0.00,Wunderground v.1.15,2013-02-17 08:40:00,
2013-02-17 03:41:00,17.0,7.3,29.89,WNW,294,6.0,15.0,65,0.00,,,0.00,Wunderground v.1.15,2013-02-17 08:41:00,
2013-02-17 03:43:00,17.0,7.3,29.89,West,276,4.0,15.0,65,0.00,,,0.00,Wunderground v.1.15,2013-02-17 08:43:00,
2013-02-17 03:44:00,17.0,7.3,29.89,NW,325,8.0,15.0,65,0.00,,,0.00,Wunderground v.1.15,2013-02-17 08:44:00,
2013-02-17 03:45:00,17.0,7.3,29.89,WNW,282,7.0,15.0,65,0.00,,,0.00,Wunderground v.1.15,2013-02-17 08:45:00,
2013-02-17 03:46:00,17.0,6.9,29.89,WNW,297,6.0,15.0,64,0.00,,,0.00,Wunderground v.1.15,2013-02-17 08:46:00,
2013-02-17 03:48:00,17.0,6.9,29.89,NW,311,8.0,15.0,64,0.00,,,0.00,Wunderground v.1.15,2013-02-17 08:48:00,
2013-02-17 03:50:00,17.0,6.9,29.89,WNW,285,6.0,8.0,64,0.00,,,0.00,Wunderground v.1.15,2013-02-17 08:50:00,
2013-02-17 03:51:00,17.0,6.9,29.89,NW,311,12.0,12.0,64,0.00,,,0.00,Wunderground v.1.15,2013-02-17 08:51:00,
2013-02-17 03:53:00,17.0,6.9,29.89,NW,309,6.0,14.0,64,0.00,,,0.00,Wunderground v.1.15,2013-02-17 08:53:00,
2013-02-17 03:55:00,16.9,7.2,29.89,WNW,299,5.0,14.0,65,0.00,,,0.00,Wunderground v.1.15,2013-02-17 08:55:00,
2013-02-17 03:56:00,16.9,7.2,29.89,WNW,287,7.0,14.0,65,0.00,,,0.00,Wunderground v.1.15,2013-02-17 08:56:00,
2013-02-17 03:58:00,16.8,7.1,29.89,WNW,282,10.0,14.0,65,0.00,,,0.00,Wunderground v.1.15,2013-02-17 08:58:00,
2013-02-17 04:00:00,16.8,7.1,29.89,WNW,294,7.0,9.0,65,0.00,,,0.00,Wunderground v.1.15,2013-02-17 09:00:00,
2013-02-17 04:01:00,16.8,7.4,29.89,WNW,299,10.0,11.0,66,0.00,,,0.00,Wunderground v.1.15,2013-02-17 09:01:00,
2013-02-17 04:03:00,16.7,7.3,29.89,WNW,298,7.0,12.0,66,0.00,,,0.00,Wunderground v.1.15,2013-02-17 09:03:00,
2013-02-17 04:05:00,16.7,7.3,29.89,WNW,294,9.0,13.0,66,0.00,,,0.00,Wunderground v.1.15,2013-02-17 09:05:00,
2013-02-17 04:06:00,16.6,7.2,29.89,West,268,7.0,13.0,66,0.00,,,0.00,Wunderground v.1.15,2013-02-17 09:06:00,
2013-02-17 04:09:00,16.5,7.1,29.89,WNW,293,5.0,13.0,66,0.00,,,0.00,Wunderground v.1.15,2013-02-17 09:09:00,
2013-02-17 04:10:00,16.5,7.4,29.89,WNW,296,8.0,12.0,67,0.00,,,0.00,Wunderground v.1.15,2013-02-17 09:10:00,
2013-02-17 04:11:00,16.5,7.4,29.89,NW,311,10.0,12.0,67,0.00,,,0.00,Wunderground v.1.15,2013-02-17 09:11:00,
2013-02-17 04:12:00,16.5,7.4,29.90,WNW,288,6.0,13.0,67,0.00,,,0.00,Wunderground v.1.15,2013-02-17 09:12:00,
2013-02-17 04:14:00,16.5,7.1,29.90,NW,313,7.0,13.0,66,0.00,,,0.00,Wunderground v.1.15,2013-02-17 09:14:00,
2013-02-17 04:15:00,16.5,7.1,29.89,WNW,294,10.0,13.0,66,0.00,,,0.00,Wunderground v.1.15,2013-02-17 09:15:00,
2013-02-17 04:16:00,16.6,7.2,29.89,WNW,287,7.0,13.0,66,0.00,,,0.00,Wunderground v.1.15,2013-02-17 09:16:00,
2013-02-17 04:17:00,16.6,7.2,29.89,WNW,290,4.0,13.0,66,0.00,,,0.00,Wunderground v.1.15,2013-02-17 09:17:00,
2013-02-17 04:19:00,16.6,7.2,29.89,West,277,6.0,13.0,66,0.00,,,0.00,Wunderground v.1.15,2013-02-17 09:19:00,
2013-02-17 04:21:00,16.6,7.2,29.89,NW,319,3.0,6.0,66,0.00,,,0.00,Wunderground v.1.15,2013-02-17 09:21:00,
2013-02-17 04:23:00,16.6,6.9,29.89,West,279,6.0,8.0,65,0.00,,,0.00,Wunderground v.1.15,2013-02-17 09:23:00,
2013-02-17 04:24:00,16.6,6.9,29.89,NW,304,8.0,15.0,65,0.00,,,0.00,Wunderground v.1.15,2013-02-17 09:24:00,
2013-02-17 04:26:00,16.6,6.9,29.89,NW,313,7.0,15.0,65,0.00,,,0.00,Wunderground v.1.15,2013-02-17 09:26:00,
2013-02-17 04:28:00,16.6,6.9,29.90,West,264,8.0,15.0,65,0.00,,,0.00,Wunderground v.1.15,2013-02-17 09:28:00,
2013-02-17 04:30:00,16.7,6.6,29.89,WNW,296,14.0,20.0,64,0.00,,,0.00,Wunderground v.1.15,2013-02-17 09:30:00,
2013-02-17 04:31:00,16.7,6.6,29.90,NW,313,12.0,20.0,64,0.00,,,0.00,Wunderground v.1.15,2013-02-17 09:31:00,
2013-02-17 04:33:00,16.7,7.0,29.90,WNW,291,7.0,20.0,65,0.00,,,0.00,Wunderground v.1.15,2013-02-17 09:33:00,
2013-02-17 04:36:00,16.7,7.0,29.90,NW,317,8.0,20.0,65,0.00,,,0.00,Wunderground v.1.15,2013-02-17 09:36:00,
2013-02-17 04:38:00,16.7,7.0,29.90,NW,305,9.0,20.0,65,0.00,,,0.00,Wunderground v.1.15,2013-02-17 09:38:00,
2013-02-17 04:41:00,16.7,6.6,29.90,WNW,286,14.0,18.0,64,0.00,,,0.00,Wunderground v.1.15,2013-02-17 09:41:00,
2013-02-17 04:42:00,16.7,7.0,29.90,WNW,296,5.0,18.0,65,0.00,,,0.00,Wunderground v.1.15,2013-02-17 09:42:00,
2013-02-17 04:44:00,16.7,7.0,29.90,WSW,253,6.0,18.0,65,0.00,,,0.00,Wunderground v.1.15,2013-02-17 09:44:00,
2013-02-17 04:46:00,16.7,7.0,29.90,NW,309,11.0,18.0,65,0.00,,,0.00,Wunderground v.1.15,2013-02-17 09:46:00,
2013-02-17 04:47:00,16.7,7.0,29.90,WNW,300,6.0,18.0,65,0.00,,,0.00,Wunderground v.1.15,2013-02-17 09:47:00,
2013-02-17 04:49:00,16.7,7.0,29.90,WNW,287,7.0,18.0,65,0.00,,,0.00,Wunderground v.1.15,2013-02-17 09:49:00,
2013-02-17 04:51:00,16.7,7.0,29.90,NW,325,4.0,12.0,65,0.00,,,0.00,Wunderground v.1.15,2013-02-17 09:51:00,
2013-02-17 04:52:00,16.7,7.3,29.90,WNW,295,5.0,12.0,66,0.00,,,0.00,Wunderground v.1.15,2013-02-17 09:52:00,
2013-02-17 04:54:00,16.6,7.5,29.90,WNW,300,6.0,12.0,67,0.00,,,0.00,Wunderground v.1.15,2013-02-17 09:54:00,
2013-02-17 04:56:00,16.6,7.5,29.90,NW,311,4.0,12.0,67,0.00,,,0.00,Wunderground v.1.15,2013-02-17 09:56:00,
2013-02-17 04:57:00,16.5,7.8,29.90,WNW,286,10.0,13.0,68,0.00,,,0.00,Wunderground v.1.15,2013-02-17 09:57:00,
2013-02-17 04:58:00,16.4,8.0,29.90,NW,321,8.0,13.0,69,0.00,,,0.00,Wunderground v.1.15,2013-02-17 09:58:00,
2013-02-17 04:59:00,16.4,8.3,29.90,NW,304,8.0,13.0,70,0.00,,,0.00,Wunderground v.1.15,2013-02-17 09:59:00,
2013-02-17 05:01:00,16.3,8.9,29.90,WNW,300,10.0,16.0,72,0.00,,,0.00,Wunderground v.1.15,2013-02-17 10:01:00,
2013-02-17 05:02:00,16.2,8.8,29.90,NW,324,9.0,16.0,72,0.00,,,0.00,Wunderground v.1.15,2013-02-17 10:02:00,
2013-02-17 05:04:00,16.2,8.8,29.90,West,265,8.0,16.0,72,0.00,,,0.00,Wunderground v.1.15,2013-02-17 10:04:00,
2013-02-17 05:05:00,16.2,8.8,29.90,NW,321,12.0,16.0,72,0.00,,,0.00,Wunderground v.1.15,2013-02-17 10:05:00,
2013-02-17 05:07:00,16.1,8.7,29.90,WNW,298,14.0,21.0,72,0.00,,,0.00,Wunderground v.1.15,2013-02-17 10:07:00,
2013-02-17 05:08:00,16.1,8.7,29.90,NW,306,20.0,21.0,72,0.00,,,0.00,Wunderground v.1.15,2013-02-17 10:08:00,
2013-02-17 05:09:00,16.1,9.0,29.90,NW,306,9.0,21.0,73,0.00,,,0.00,Wunderground v.1.15,2013-02-17 10:09:00,
2013-02-17 05:10:00,16.1,9.3,29.91,NW,309,13.0,17.0,74,0.00,,,0.00,Wunderground v.1.15,2013-02-17 10:10:00,
2013-02-17 05:12:00,16.0,9.5,29.90,WNW,296,10.0,17.0,75,0.00,,,0.00,Wunderground v.1.15,2013-02-17 10:12:00,
2013-02-17 05:13:00,16.0,9.5,29.91,WNW,303,5.0,17.0,75,0.00,,,0.00,Wunderground v.1.15,2013-02-17 10:13:00,
2013-02-17 05:14:00,15.9,10.0,29.91,WNW,294,11.0,17.0,77,0.00,,,0.00,Wunderground v.1.15,2013-02-17 10:14:00,
2013-02-17 05:15:00,15.9,10.0,29.91,NW,326,16.0,17.0,77,0.00,,,0.00,Wunderground v.1.15,2013-02-17 10:15:00,
2013-02-17 05:17:00,15.8,10.2,29.91,NW,304,8.0,17.0,78,0.00,,,0.00,Wunderground v.1.15,2013-02-17 10:17:00,
2013-02-17 05:18:00,15.7,10.3,29.91,WNW,290,7.0,17.0,79,0.00,,,0.00,Wunderground v.1.15,2013-02-17 10:18:00,
2013-02-17 05:19:00,15.7,10.3,29.91,WNW,292,9.0,17.0,79,0.00,,,0.00,Wunderground v.1.15,2013-02-17 10:19:00,
2013-02-17 05:20:00,15.6,10.5,29.91,WSW,246,5.0,13.0,80,0.00,,,0.00,Wunderground v.1.15,2013-02-17 10:20:00,
2013-02-17 05:22:00,15.5,10.4,29.92,NW,315,8.0,14.0,80,0.00,,,0.00,Wunderground v.1.15,2013-02-17 10:22:00,
2013-02-17 05:23:00,15.5,10.7,29.92,West,273,15.0,15.0,81,0.00,,,0.00,Wunderground v.1.15,2013-02-17 10:23:00,
2013-02-17 05:24:00,15.5,10.7,29.92,West,279,11.0,17.0,81,0.00,,,0.00,Wunderground v.1.15,2013-02-17 10:24:00,
2013-02-17 05:26:00,15.4,10.9,29.92,West,272,5.0,22.0,82,0.00,,,0.00,Wunderground v.1.15,2013-02-17 10:26:00,
2013-02-17 05:28:00,15.2,11.0,29.92,West,268,3.0,22.0,83,0.00,,,0.00,Wunderground v.1.15,2013-02-17 10:28:00,
2013-02-17 05:29:00,15.1,10.9,29.92,WSW,258,6.0,22.0,83,0.00,,,0.00,Wunderground v.1.15,2013-02-17 10:29:00,
2013-02-17 05:31:00,15.0,10.5,29.92,NW,311,9.0,16.0,82,0.00,,,0.00,Wunderground v.1.15,2013-02-17 10:31:00,
2013-02-17 05:33:00,14.9,10.4,29.92,NNW,331,9.0,18.0,82,0.00,,,0.00,Wunderground v.1.15,2013-02-17 10:33:00,
2013-02-17 05:34:00,14.9,10.4,29.92,WNW,298,7.0,18.0,82,0.00,,,0.00,Wunderground v.1.15,2013-02-17 10:34:00,
2013-02-17 05:36:00,14.8,10.3,29.92,NW,323,5.0,18.0,82,0.00,,,0.00,Wunderground v.1.15,2013-02-17 10:36:00,
2013-02-17 05:38:00,14.7,10.2,29.92,WNW,286,9.0,18.0,82,0.00,,,0.00,Wunderground v.1.15,2013-02-17 10:38:00,
2013-02-17 05:40:00,14.7,9.9,29.92,WNW,282,13.0,15.0,81,0.00,,,0.00,Wunderground v.1.15,2013-02-17 10:40:00,
2013-02-17 05:42:00,14.6,9.8,29.93,West,279,11.0,19.0,81,0.00,,,0.00,Wunderground v.1.15,2013-02-17 10:42:00,
2013-02-17 05:44:00,14.5,9.5,29.93,WNW,288,10.0,19.0,80,0.00,,,0.00,Wunderground v.1.15,2013-02-17 10:44:00,
2013-02-17 05:45:00,14.5,9.5,29.93,NW,307,7.0,19.0,80,0.00,,,0.00,Wunderground v.1.15,2013-02-17 10:45:00,
2013-02-17 05:47:00,14.5,9.5,29.93,West,263,9.0,20.0,80,0.00,,,0.00,Wunderground v.1.15,2013-02-17 10:47:00,
2013-02-17 05:49:00,14.4,9.4,29.93,WNW,284,5.0,20.0,80,0.00,,,0.00,Wunderground v.1.15,2013-02-17 10:49:00,
2013-02-17 05:51:00,14.4,9.4,29.93,SW,219,11.0,12.0,80,0.00,,,0.00,Wunderground v.1.15,2013-02-17 10:51:00,
2013-02-17 05:52:00,14.4,9.1,29.93,NW,305,13.0,20.0,79,0.00,,,0.00,Wunderground v.1.15,2013-02-17 10:52:00,
2013-02-17 05:54:00,14.3,8.7,29.93,WSW,253,12.0,20.0,78,0.00,,,0.00,Wunderground v.1.15,2013-02-17 10:54:00,
2013-02-17 05:56:00,14.3,7.8,29.93,WNW,298,8.0,20.0,75,0.00,,,0.00,Wunderground v.1.15,2013-02-17 10:56:00,
2013-02-17 05:57:00,14.3,7.8,29.93,WNW,296,9.0,20.0,75,0.00,,,0.00,Wunderground v.1.15,2013-02-17 10:57:00,
2013-02-17 05:59:00,14.3,7.8,29.94,WSW,242,3.0,20.0,75,0.00,,,0.00,Wunderground v.1.15,2013-02-17 10:59:00,
2013-02-17 06:01:00,14.3,7.8,29.94,West,265,4.0,9.0,75,0.00,,,0.00,Wunderground v.1.15,2013-02-17 11:01:00,
2013-02-17 06:02:00,14.3,8.1,29.94,West,275,2.0,9.0,76,0.00,,,0.00,Wunderground v.1.15,2013-02-17 11:02:00,
2013-02-17 06:04:00,14.3,8.1,29.93,NNE,14,5.0,12.0,76,0.00,,,0.00,Wunderground v.1.15,2013-02-17 11:04:00,
2013-02-17 06:05:00,14.3,7.8,29.94,West,265,7.0,12.0,75,0.00,,,0.00,Wunderground v.1.15,2013-02-17 11:05:00,
2013-02-17 06:06:00,14.3,7.8,29.94,WNW,303,5.0,12.0,75,0.00,,,0.00,Wunderground v.1.15,2013-02-17 11:06:00,
2013-02-17 06:08:00,14.3,7.8,29.94,WNW,303,4.0,12.0,75,0.00,,,0.00,Wunderground v.1.15,2013-02-17 11:08:00,
2013-02-17 06:09:00,14.3,7.5,29.93,WSW,249,8.0,12.0,74,0.00,,,0.00,Wunderground v.1.15,2013-02-17 11:09:00,
2013-02-17 06:10:00,14.3,7.5,29.94,NNW,334,7.0,11.0,74,0.00,,,0.00,Wunderground v.1.15,2013-02-17 11:10:00,
2013-02-17 06:11:00,14.2,7.4,29.94,NW,318,12.0,12.0,74,0.00,,,0.00,Wunderground v.1.15,2013-02-17 11:11:00,
2013-02-17 06:13:00,14.2,7.4,29.94,NW,308,7.0,12.0,74,0.00,,,0.00,Wunderground v.1.15,2013-02-17 11:13:00,
2013-02-17 06:14:00,14.2,7.4,29.94,WNW,295,5.0,12.0,74,0.00,,,0.00,Wunderground v.1.15,2013-02-17 11:14:00,
2013-02-17 06:15:00,14.2,7.4,29.94,WNW,292,8.0,12.0,74,0.00,,,0.00,Wunderground v.1.15,2013-02-17 11:15:00,
2013-02-17 06:17:00,14.1,7.3,29.94,WNW,293,7.0,12.0,74,0.00,,,0.00,Wunderground v.1.15,2013-02-17 11:17:00,
2013-02-17 06:18:00,14.1,7.3,29.94,WNW,291,4.0,12.0,74,0.00,,,0.00,Wunderground v.1.15,2013-02-17 11:18:00,
2013-02-17 06:19:00,14.1,7.3,29.94,NW,315,6.0,12.0,74,0.00,,,0.00,Wunderground v.1.15,2013-02-17 11:19:00,
2013-02-17 06:20:00,14.0,7.2,29.94,WNW,291,8.0,9.0,74,0.00,,,0.00,Wunderground v.1.15,2013-02-17 11:20:00,
2013-02-17 06:22:00,14.0,7.2,29.94,West,272,8.0,12.0,74,0.00,,,0.00,Wunderground v.1.15,2013-02-17 11:22:00,
2013-02-17 06:23:00,14.0,6.9,29.94,NW,310,7.0,12.0,73,0.00,,,0.00,Wunderground v.1.15,2013-02-17 11:23:00,
2013-02-17 06:25:00,14.0,6.9,29.94,West,279,8.0,12.0,73,0.00,,,0.00,Wunderground v.1.15,2013-02-17 11:25:00,
2013-02-17 06:27:00,14.0,6.6,29.94,WNW,290,14.0,18.0,72,0.00,,,0.00,Wunderground v.1.15,2013-02-17 11:27:00,
2013-02-17 06:28:00,13.9,6.5,29.94,WNW,300,10.0,18.0,72,0.00,,,0.00,Wunderground v.1.15,2013-02-17 11:28:00,
2013-02-17 06:30:00,13.9,6.2,29.94,NW,304,19.0,22.0,71,0.00,,,0.00,Wunderground v.1.15,2013-02-17 11:30:00,
2013-02-17 06:31:00,13.9,6.2,29.94,WNW,294,21.0,22.0,71,0.00,,,0.00,Wunderground v.1.15,2013-02-17 11:31:00,
2013-02-17 06:32:00,13.9,5.9,29.94,West,271,9.0,22.0,70,0.00,,,0.00,Wunderground v.1.15,2013-02-17 11:32:00,
2013-02-17 06:33:00,13.9,5.9,29.94,NW,315,12.0,22.0,70,0.00,,,0.00,Wunderground v.1.15,2013-02-17 11:33:00,
2013-02-17 06:35:00,13.8,6.1,29.94,WSW,252,7.0,22.0,71,0.00,,,0.00,Wunderground v.1.15,2013-02-17 11:35:00,
2013-02-17 06:36:00,13.8,6.1,29.94,NNW,337,12.0,22.0,71,0.00,,,0.00,Wunderground v.1.15,2013-02-17 11:36:00,
2013-02-17 06:37:00,13.8,6.1,29.94,WNW,292,9.0,22.0,71,0.00,,,0.00,Wunderground v.1.15,2013-02-17 11:37:00,
2013-02-17 06:39:00,13.8,6.1,29.94,NNW,333,6.0,22.0,71,0.00,,,0.00,Wunderground v.1.15,2013-02-17 11:39:00,
2013-02-17 06:40:00,13.7,6.0,29.94,NNW,340,7.0,11.0,71,0.00,,,0.00,Wunderground v.1.15,2013-02-17 11:40:00,
2013-02-17 06:42:00,13.7,6.0,29.94,NW,311,11.0,13.0,71,0.00,,,0.00,Wunderground v.1.15,2013-02-17 11:42:00,
2013-02-17 06:44:00,13.7,6.0,29.95,North,10,8.0,17.0,71,0.00,,,0.00,Wunderground v.1.15,2013-02-17 11:44:00,
2013-02-17 06:45:00,13.6,5.9,29.95,NW,316,10.0,17.0,71,0.00,,,0.00,Wunderground v.1.15,2013-02-17 11:45:00,
2013-02-17 06:47:00,13.6,5.9,29.94,WNW,302,17.0,17.0,71,0.00,,,0.00,Wunderground v.1.15,2013-02-17 11:47:00,
2013-02-17 06:48:00,13.6,5.9,29.94,WNW,286,15.0,19.0,71,0.00,,,0.00,Wunderground v.1.15,2013-02-17 11:48:00,
2013-02-17 06:50:00,13.5,6.1,29.94,NW,311,8.0,9.0,72,0.00,,,0.00,Wunderground v.1.15,2013-02-17 11:50:00,
2013-02-17 06:53:00,13.5,6.1,29.94,WSW,246,12.0,13.0,72,0.00,,,0.00,Wunderground v.1.15,2013-02-17 11:53:00,
2013-02-17 06:55:00,13.4,6.1,29.94,NW,308,8.0,18.0,72,0.00,,,0.00,Wunderground v.1.15,2013-02-17 11:55:00,
2013-02-17 06:58:00,13.4,6.1,29.94,WNW,297,9.0,18.0,72,0.00,,,0.00,Wunderground v.1.15,2013-02-17 11:58:00,
2013-02-17 06:59:00,13.4,6.1,29.94,WNW,303,7.0,18.0,72,0.00,,,0.00,Wunderground v.1.15,2013-02-17 11:59:00,
2013-02-17 07:00:00,13.3,6.0,29.94,WNW,296,10.0,12.0,72,0.00,,,0.00,Wunderground v.1.15,2013-02-17 12:00:00,
2013-02-17 07:01:00,13.3,5.6,29.94,WNW,303,11.0,16.0,71,0.00,,,0.00,Wunderground v.1.15,2013-02-17 12:01:00,
2013-02-17 07:03:00,13.3,5.6,29.94,WNW,295,10.0,18.0,71,0.00,,,0.00,Wunderground v.1.15,2013-02-17 12:03:00,
2013-02-17 07:04:00,13.3,5.6,29.94,WNW,291,6.0,18.0,71,0.00,,,0.00,Wunderground v.1.15,2013-02-17 12:04:00,
2013-02-17 07:06:00,13.2,5.6,29.94,WNW,298,11.0,18.0,71,0.00,,,0.00,Wunderground v.1.15,2013-02-17 12:06:00,
2013-02-17 07:09:00,13.2,5.6,29.94,West,270,5.0,18.0,71,0.00,,,0.00,Wunderground v.1.15,2013-02-17 12:09:00,
2013-02-17 07:11:00,13.2,5.9,29.94,WNW,287,9.0,15.0,72,0.00,,,0.00,Wunderground v.1.15,2013-02-17 12:11:00,
2013-02-17 07:14:00,13.1,5.8,29.94,NW,306,18.0,18.0,72,0.00,,,0.00,Wunderground v.1.15,2013-02-17 12:14:00,
2013-02-17 07:16:00,13.1,5.8,29.94,West,279,5.0,20.0,72,0.00,,,0.00,Wunderground v.1.15,2013-02-17 12:16:00,
2013-02-17 07:17:00,13.1,5.8,29.94,WNW,296,8.0,20.0,72,0.00,,,0.00,Wunderground v.1.15,2013-02-17 12:17:00,
2013-02-17 07:19:00,13.1,5.8,29.94,West,281,11.0,20.0,72,0.00,,,0.00,Wunderground v.1.15,2013-02-17 12:19:00,
2013-02-17 07:22:00,13.1,5.8,29.94,WNW,288,8.0,15.0,72,0.00,,,0.00,Wunderground v.1.15,2013-02-17 12:22:00,
2013-02-17 07:24:00,13.1,6.0,29.94,WNW,301,7.0,22.0,72,0.00,,,0.00,weatherlink.com 1.10,2013-02-17 12:24:00,
2013-02-17 07:25:00,13.1,6.1,29.94,NW,313,11.0,15.0,73,0.00,,,0.00,Wunderground v.1.15,2013-02-17 12:25:00,
2013-02-17 07:27:00,13.0,5.7,29.94,NW,323,10.0,15.0,72,0.00,,,0.00,Wunderground v.1.15,2013-02-17 12:27:00,
2013-02-17 07:29:00,13.0,5.7,29.94,NW,309,13.0,15.0,72,0.00,,,0.00,Wunderground v.1.15,2013-02-17 12:29:00,
2013-02-17 07:31:00,13.0,5.7,29.94,NW,304,10.0,17.0,72,0.00,,,0.00,Wunderground v.1.15,2013-02-17 12:31:00,
2013-02-17 07:32:00,13.0,5.7,29.95,NW,306,9.0,18.0,72,0.00,,,0.00,Wunderground v.1.15,2013-02-17 12:32:00,
2013-02-17 07:34:00,13.1,6.1,29.95,NNW,329,6.0,18.0,73,0.00,,,0.00,Wunderground v.1.15,2013-02-17 12:34:00,
2013-02-17 07:37:00,13.2,5.9,29.95,West,270,11.0,20.0,72,0.00,,,0.00,Wunderground v.1.15,2013-02-17 12:37:00,
2013-02-17 07:38:00,13.2,5.9,29.94,NW,305,13.0,20.0,72,0.00,,,0.00,Wunderground v.1.15,2013-02-17 12:38:00,
2013-02-17 07:40:00,13.2,5.9,29.95,West,281,4.0,12.0,72,0.00,,,0.00,Wunderground v.1.15,2013-02-17 12:40:00,
2013-02-17 07:42:00,13.2,5.9,29.95,NW,319,4.0,17.0,72,0.00,,,0.00,Wunderground v.1.15,2013-02-17 12:42:00,
2013-02-17 07:43:00,13.2,5.9,29.95,NNW,336,16.0,17.0,72,0.00,,,0.00,Wunderground v.1.15,2013-02-17 12:43:00,
2013-02-17 07:45:00,13.2,5.9,29.95,West,272,5.0,17.0,72,0.00,,,0.00,Wunderground v.1.15,2013-02-17 12:45:00,
2013-02-17 07:47:00,13.3,6.0,29.95,WNW,300,8.0,17.0,72,0.00,,,0.00,Wunderground v.1.15,2013-02-17 12:47:00,
2013-02-17 07:48:00,13.3,6.0,29.95,NW,309,6.0,17.0,72,0.00,,,0.00,Wunderground v.1.15,2013-02-17 12:48:00,
2013-02-17 07:49:00,13.3,6.0,29.95,WNW,300,14.0,17.0,72,0.00,,,0.00,Wunderground v.1.15,2013-02-17 12:49:00,
2013-02-17 07:51:00,13.3,6.0,29.95,WSW,244,11.0,14.0,72,0.00,,,0.00,Wunderground v.1.15,2013-02-17 12:51:00,
2013-02-17 07:52:00,13.3,6.0,29.95,WNW,285,8.0,14.0,72,0.00,,,0.00,Wunderground v.1.15,2013-02-17 12:52:00,
2013-02-17 07:53:00,13.4,6.1,29.96,NW,326,9.0,14.0,72,0.00,,,0.00,Wunderground v.1.15,2013-02-17 12:53:00,
2013-02-17 07:55:00,13.4,6.1,29.96,NNW,328,12.0,14.0,72,0.00,,,0.00,Wunderground v.1.15,2013-02-17 12:55:00,
2013-02-17 07:56:00,13.4,6.1,29.96,WNW,296,8.0,14.0,72,0.00,,,0.00,Wunderground v.1.15,2013-02-17 12:56:00,
2013-02-17 07:57:00,13.4,6.1,29.96,WNW,284,9.0,15.0,72,0.00,,,0.00,Wunderground v.1.15,2013-02-17 12:57:00,
2013-02-17 07:58:00,13.5,6.1,29.96,NW,306,8.0,15.0,72,0.00,,,0.00,Wunderground v.1.15,2013-02-17 12:58:00,
2013-02-17 08:00:00,13.4,6.1,29.96,WNW,301,8.0,10.0,72,0.00,,,0.00,Wunderground v.1.15,2013-02-17 13:00:00,
2013-02-17 08:01:00,13.5,6.1,29.96,NNW,334,9.0,13.0,72,0.00,,,0.00,Wunderground v.1.15,2013-02-17 13:01:00,
2013-02-17 08:02:00,13.5,6.1,29.96,NNW,336,8.0,13.0,72,0.00,,,0.00,Wunderground v.1.15,2013-02-17 13:02:00,
2013-02-17 08:04:00,13.5,5.8,29.96,WNW,292,15.0,18.0,71,0.00,,,0.00,Wunderground v.1.15,2013-02-17 13:04:00,
2013-02-17 08:05:00,13.5,5.8,29.96,NNW,339,11.0,18.0,71,0.00,,,0.00,Wunderground v.1.15,2013-02-17 13:05:00,
2013-02-17 08:06:00,13.6,5.9,29.96,West,275,16.0,18.0,71,0.00,,,0.00,Wunderground v.1.15,2013-02-17 13:06:00,
2013-02-17 08:07:00,13.6,5.9,29.96,West,265,6.0,18.0,71,0.00,,,0.00,Wunderground v.1.15,2013-02-17 13:07:00,
2013-02-17 08:09:00,13.6,5.9,29.96,NW,315,13.0,18.0,71,0.00,,,0.00,Wunderground v.1.15,2013-02-17 13:09:00,
2013-02-17 08:10:00,13.6,5.6,29.97,WNW,298,19.0,19.0,70,0.00,,,0.00,Wunderground v.1.15,2013-02-17 13:10:00,
2013-02-17 08:12:00,13.7,5.7,29.97,NW,317,5.0,24.0,70,0.00,,,0.00,Wunderground v.1.15,2013-02-17 13:12:00,
2013-02-17 08:15:00,13.7,5.4,29.96,WNW,300,15.0,24.0,69,0.00,,,0.00,Wunderground v.1.15,2013-02-17 13:15:00,
2013-02-17 08:16:00,13.7,5.4,29.97,WNW,298,12.0,24.0,69,0.00,,,0.00,Wunderground v.1.15,2013-02-17 13:16:00,
2013-02-17 08:17:00,13.8,5.5,29.97,NW,306,18.0,24.0,69,0.00,,,0.00,Wunderground v.1.15,2013-02-17 13:17:00,
2013-02-17 08:20:00,14.0,5.7,29.97,WSW,252,8.0,13.0,69,0.00,,,0.00,Wunderground v.1.15,2013-02-17 13:20:00,
2013-02-17 08:21:00,14.0,5.4,29.97,WNW,302,12.0,13.0,68,0.00,,,0.00,Wunderground v.1.15,2013-02-17 13:21:00,
2013-02-17 08:22:00,14.0,5.4,29.97,WNW,297,11.0,20.0,68,0.00,,,0.00,Wunderground v.1.15,2013-02-17 13:22:00,
2013-02-17 08:23:00,14.0,5.4,29.97,NW,304,8.0,20.0,68,0.00,,,0.00,Wunderground v.1.15,2013-02-17 13:23:00,
2013-02-17 08:26:00,14.1,5.5,29.97,NW,311,14.0,20.0,68,0.00,,,0.00,Wunderground v.1.15,2013-02-17 13:26:00,
2013-02-17 08:27:00,14.1,5.5,29.97,WNW,294,11.0,20.0,68,0.00,,,0.00,Wunderground v.1.15,2013-02-17 13:27:00,
2013-02-17 08:28:00,14.0,5.4,29.97,WNW,291,14.0,20.0,68,0.00,,,0.00,Wunderground v.1.15,2013-02-17 13:28:00,
2013-02-17 08:31:00,14.1,5.5,29.97,WNW,284,9.0,15.0,68,0.00,,,0.00,Wunderground v.1.15,2013-02-17 13:31:00,
2013-02-17 08:33:00,14.1,5.5,29.97,WNW,298,7.0,16.0,68,0.00,,,0.00,Wunderground v.1.15,2013-02-17 13:33:00,
2013-02-17 08:36:00,14.1,5.5,29.97,NNW,336,10.0,24.0,68,0.00,,,0.00,Wunderground v.1.15,2013-02-17 13:36:00,
2013-02-17 08:38:00,14.1,5.5,29.97,NW,306,12.0,24.0,68,0.00,,,0.00,Wunderground v.1.15,2013-02-17 13:38:00,
2013-02-17 08:41:00,14.2,5.2,29.97,NW,306,16.0,18.0,67,0.00,,,0.00,Wunderground v.1.15,2013-02-17 13:41:00,
2013-02-17 08:42:00,14.2,5.2,29.97,WNW,292,9.0,18.0,67,0.00,,,0.00,Wunderground v.1.15,2013-02-17 13:42:00,
2013-02-17 08:43:00,14.3,5.3,29.98,NW,305,7.0,18.0,67,0.00,,,0.00,Wunderground v.1.15,2013-02-17 13:43:00,
2013-02-17 08:46:00,14.4,5.1,29.97,West,279,7.0,22.0,66,0.00,,,0.00,Wunderground v.1.15,2013-02-17 13:46:00,
2013-02-17 08:47:00,14.4,5.1,29.97,WSW,243,9.0,22.0,66,0.00,,,0.00,Wunderground v.1.15,2013-02-17 13:47:00,
2013-02-17 08:48:00,14.4,5.1,29.98,WNW,282,10.0,22.0,66,0.00,,,0.00,Wunderground v.1.15,2013-02-17 13:48:00,
2013-02-17 08:49:00,14.5,5.2,29.98,NNW,327,15.0,22.0,66,0.00,,,0.00,Wunderground v.1.15,2013-02-17 13:49:00,
2013-02-17 08:51:00,14.5,4.9,29.98,WNW,293,7.0,27.0,65,0.00,,,0.00,Wunderground v.1.15,2013-02-17 13:51:00,
2013-02-17 08:52:00,14.6,5.0,29.98,NNW,327,12.0,27.0,65,0.00,,,0.00,Wunderground v.1.15,2013-02-17 13:52:00,
2013-02-17 08:54:00,14.6,5.0,29.98,West,263,11.0,27.0,65,0.00,,,0.00,Wunderground v.1.15,2013-02-17 13:54:00,
2013-02-17 08:57:00,14.8,4.8,29.98,WNW,295,15.0,27.0,64,0.00,,,0.00,Wunderground v.1.15,2013-02-17 13:57:00,
2013-02-17 08:58:00,14.7,4.0,29.98,NW,309,8.0,27.0,62,0.00,,,0.00,Wunderground v.1.15,2013-02-17 13:58:00,
2013-02-17 08:59:00,14.7,4.0,29.98,NNE,16,7.0,27.0,62,0.00,,,0.00,Wunderground v.1.15,2013-02-17 13:59:00,
2013-02-17 09:02:00,14.8,4.5,29.98,West,273,12.0,15.0,63,0.00,,,0.00,Wunderground v.1.15,2013-02-17 14:02:00,
2013-02-17 09:04:00,14.9,4.6,29.98,WNW,303,19.0,19.0,63,0.00,,,0.00,Wunderground v.1.15,2013-02-17 14:04:00,
2013-02-17 09:07:00,14.9,3.9,29.98,WNW,298,12.0,23.0,61,0.00,,,0.00,Wunderground v.1.15,2013-02-17 14:07:00,
2013-02-17 09:09:00,15.0,4.0,29.98,NW,306,16.0,23.0,61,0.00,,,0.00,Wunderground v.1.15,2013-02-17 14:09:00,
2013-02-17 09:12:00,15.3,4.2,29.98,WNW,295,11.0,14.0,61,0.00,,,0.00,Wunderground v.1.15,2013-02-17 14:12:00,
2013-02-17 09:13:00,15.4,4.3,29.98,WNW,292,23.0,23.0,61,0.00,,,0.00,Wunderground v.1.15,2013-02-17 14:13:00,
2013-02-17 09:14:00,15.4,4.0,29.98,NW,306,14.0,23.0,60,0.00,,,0.00,Wunderground v.1.15,2013-02-17 14:14:00,
2013-02-17 09:15:00,15.5,4.1,29.97,NNW,334,7.0,23.0,60,0.00,,,0.00,Wunderground v.1.15,2013-02-17 14:15:00,
2013-02-17 09:18:00,15.7,4.3,29.98,NW,307,8.0,24.0,60,0.00,,,0.00,Wunderground v.1.15,2013-02-17 14:18:00,
2013-02-17 09:19:00,15.8,4.4,29.98,NNW,338,12.0,24.0,60,0.00,,,0.00,Wunderground v.1.15,2013-02-17 14:19:00,
2013-02-17 09:20:00,15.9,4.4,29.98,WNW,300,9.0,11.0,60,0.00,,,0.00,Wunderground v.1.15,2013-02-17 14:20:00,
2013-02-17 09:23:00,15.8,4.0,29.98,NW,318,13.0,19.0,59,0.00,,,0.00,Wunderground v.1.15,2013-02-17 14:23:00,
2013-02-17 09:25:00,15.8,4.0,29.98,West,275,9.0,24.0,59,0.00,,,0.00,weatherlink.com 1.10,2013-02-17 14:25:00,
2013-02-17 09:28:00,15.9,3.7,29.98,WNW,284,16.0,36.0,58,0.00,,,0.00,Wunderground v.1.15,2013-02-17 14:28:00,
2013-02-17 09:30:00,15.8,3.6,29.98,WNW,283,15.0,15.0,58,0.00,,,0.00,Wunderground v.1.15,2013-02-17 14:30:00,
2013-02-17 09:33:00,15.8,4.0,29.99,West,276,15.0,25.0,59,0.00,,,0.00,Wunderground v.1.15,2013-02-17 14:33:00,
2013-02-17 09:35:00,15.8,3.6,29.99,WSW,252,13.0,25.0,58,0.00,,,0.00,Wunderground v.1.15,2013-02-17 14:35:00,
2013-02-17 09:36:00,15.9,4.1,29.99,West,271,18.0,25.0,59,0.00,,,0.00,Wunderground v.1.15,2013-02-17 14:36:00,
2013-02-17 09:38:00,16.0,4.2,29.99,WNW,293,22.0,25.0,59,0.00,,,0.00,Wunderground v.1.15,2013-02-17 14:38:00,
2013-02-17 09:40:00,16.0,4.2,29.99,NW,320,8.0,13.0,59,0.00,,,0.00,Wunderground v.1.15,2013-02-17 14:40:00,
2013-02-17 09:41:00,16.1,4.3,29.99,WNW,293,12.0,14.0,59,0.00,,,0.00,Wunderground v.1.15,2013-02-17 14:41:00,
2013-02-17 09:43:00,16.1,4.3,29.99,WNW,284,24.0,24.0,59,0.00,,,0.00,Wunderground v.1.15,2013-02-17 14:43:00,
2013-02-17 09:44:00,16.1,4.3,29.99,WNW,298,15.0,24.0,59,0.00,,,0.00,Wunderground v.1.15,2013-02-17 14:44:00,
2013-02-17 09:45:00,16.2,4.7,29.99,West,281,13.0,24.0,60,0.00,,,0.00,Wunderground v.1.15,2013-02-17 14:45:00,
2013-02-17 09:47:00,16.4,4.9,29.99,WSW,244,10.0,24.0,60,0.00,,,0.00,Wunderground v.1.15,2013-02-17 14:47:00,
2013-02-17 09:49:00,16.5,5.0,29.99,WNW,299,12.0,24.0,60,0.00,,,0.00,Wunderground v.1.15,2013-02-17 14:49:00,
2013-02-17 09:50:00,16.6,5.1,29.99,NW,317,21.0,23.0,60,0.00,,,0.00,Wunderground v.1.15,2013-02-17 14:50:00,
2013-02-17 09:52:00,16.7,4.8,29.99,WNW,296,14.0,24.0,59,0.00,,,0.00,Wunderground v.1.15,2013-02-17 14:52:00,
2013-02-17 09:54:00,16.7,4.8,29.99,West,269,13.0,24.0,59,0.00,,,0.00,Wunderground v.1.15,2013-02-17 14:54:00,
2013-02-17 09:55:00,16.7,5.2,29.99,WNW,292,10.0,24.0,60,0.00,,,0.00,Wunderground v.1.15,2013-02-17 14:55:00,
2013-02-17 09:56:00,16.7,5.2,29.99,WNW,302,9.0,24.0,60,0.00,,,0.00,Wunderground v.1.15,2013-02-17 14:56:00,
2013-02-17 09:57:00,16.8,4.9,29.99,NW,306,12.0,24.0,59,0.00,,,0.00,Wunderground v.1.15,2013-02-17 14:57:00,
2013-02-17 09:59:00,16.6,4.7,29.99,WNW,298,14.0,25.0,59,0.00,,,0.00,Wunderground v.1.15,2013-02-17 14:59:00,
2013-02-17 10:00:00,16.6,4.7,29.99,NNW,333,16.0,21.0,59,0.00,,,0.00,Wunderground v.1.15,2013-02-17 15:00:00,
2013-02-17 10:01:00,16.6,4.7,29.99,NNW,333,13.0,21.0,59,0.00,,,0.00,Wunderground v.1.15,2013-02-17 15:01:00,
2013-02-17 10:03:00,16.5,4.7,29.99,NW,310,18.0,29.0,59,0.00,,,0.00,Wunderground v.1.15,2013-02-17 15:03:00,
2013-02-17 10:05:00,16.3,4.5,29.99,NW,314,7.0,29.0,59,0.00,,,0.00,Wunderground v.1.15,2013-02-17 15:05:00,
2013-02-17 10:06:00,16.2,4.4,29.99,NW,315,14.0,29.0,59,0.00,,,0.00,Wunderground v.1.15,2013-02-17 15:06:00,
2013-02-17 10:08:00,16.2,4.4,29.99,WNW,300,12.0,29.0,59,0.00,,,0.00,Wunderground v.1.15,2013-02-17 15:08:00,
2013-02-17 10:10:00,16.0,4.2,30.00,NW,304,14.0,23.0,59,0.00,,,0.00,Wunderground v.1.15,2013-02-17 15:10:00,
2013-02-17 10:11:00,16.0,4.2,30.00,WNW,300,21.0,27.0,59,0.00,,,0.00,Wunderground v.1.15,2013-02-17 15:11:00,
2013-02-17 10:13:00,15.9,4.1,30.00,West,279,15.0,27.0,59,0.00,,,0.00,Wunderground v.1.15,2013-02-17 15:13:00,
2013-02-17 10:15:00,16.1,4.3,30.00,West,281,13.0,27.0,59,0.00,,,0.00,Wunderground v.1.15,2013-02-17 15:15:00,
2013-02-17 10:16:00,16.1,4.3,30.00,West,273,17.0,27.0,59,0.00,,,0.00,Wunderground v.1.15,2013-02-17 15:16:00,
2013-02-17 10:18:00,16.2,4.7,30.00,WNW,290,18.0,27.0,60,0.00,,,0.00,Wunderground v.1.15,2013-02-17 15:18:00,
2013-02-17 10:21:00,16.2,4.7,30.00,NW,310,5.0,15.0,60,0.00,,,0.00,Wunderground v.1.15,2013-02-17 15:21:00,
2013-02-17 10:22:00,16.2,4.7,30.00,WNW,295,17.0,23.0,60,0.00,,,0.00,Wunderground v.1.15,2013-02-17 15:22:00,
2013-02-17 10:24:00,16.1,5.0,30.00,WNW,296,19.0,24.0,61,0.00,,,0.00,Wunderground v.1.15,2013-02-17 15:24:00,
2013-02-17 10:26:00,16.0,4.9,30.00,NW,308,14.0,24.0,61,0.00,,,0.00,Wunderground v.1.15,2013-02-17 15:26:00,
2013-02-17 10:27:00,16.0,4.9,30.00,WNW,293,9.0,24.0,61,0.00,,,0.00,Wunderground v.1.15,2013-02-17 15:27:00,
2013-02-17 10:29:00,16.0,5.3,30.00,WNW,294,15.0,24.0,62,0.00,,,0.00,Wunderground v.1.15,2013-02-17 15:29:00,
2013-02-17 10:32:00,16.4,5.0,30.00,NW,306,16.0,21.0,62,0.00,,,0.00,weatherlink.com 1.10,2013-02-17 15:32:00,
2013-02-17 10:34:00,16.4,5.6,30.00,NNW,335,12.0,26.0,62,0.00,,,0.00,Wunderground v.1.15,2013-02-17 15:34:00,
2013-02-17 10:37:00,16.7,5.9,30.01,NW,316,8.0,26.0,62,0.00,,,0.00,Wunderground v.1.15,2013-02-17 15:37:00,
2013-02-17 10:38:00,16.8,6.4,30.01,NNW,340,11.0,26.0,63,0.00,,,0.00,Wunderground v.1.15,2013-02-17 15:38:00,
2013-02-17 10:39:00,17.0,6.2,30.01,WNW,298,12.0,26.0,62,0.00,,,0.00,Wunderground v.1.15,2013-02-17 15:39:00,
2013-02-17 10:42:00,17.1,5.9,30.01,WNW,289,12.0,21.0,61,0.00,,,0.00,Wunderground v.1.15,2013-02-17 15:42:00,
2013-02-17 10:43:00,17.1,6.3,30.01,WNW,288,14.0,21.0,62,0.00,,,0.00,Wunderground v.1.15,2013-02-17 15:43:00,
2013-02-17 10:44:00,17.1,5.9,30.01,WNW,297,15.0,21.0,61,0.00,,,0.00,Wunderground v.1.15,2013-02-17 15:44:00,
2013-02-17 10:48:00,17.2,6.4,30.01,WNW,298,23.0,23.0,62,0.00,,,0.00,Wunderground v.1.15,2013-02-17 15:48:00,
2013-02-17 10:50:00,17.1,6.3,30.01,West,280,16.0,18.0,62,0.00,,,0.00,Wunderground v.1.15,2013-02-17 15:50:00,
2013-02-17 10:53:00,17.0,5.9,30.01,NW,319,15.0,20.0,61,0.00,,,0.00,Wunderground v.1.15,2013-02-17 15:53:00,
2013-02-17 10:55:00,16.9,5.8,30.01,NW,315,13.0,20.0,61,0.00,,,0.00,Wunderground v.1.15,2013-02-17 15:55:00,
2013-02-17 10:58:00,17.0,6.2,30.01,West,274,16.0,22.0,62,0.00,,,0.00,Wunderground v.1.15,2013-02-17 15:58:00,
2013-02-17 11:01:00,17.0,5.9,30.01,WNW,288,15.0,20.0,61,0.00,,,0.00,Wunderground v.1.15,2013-02-17 16:01:00,
2013-02-17 11:03:00,17.2,6.0,30.01,NW,318,10.0,20.0,61,0.00,,,0.00,Wunderground v.1.15,2013-02-17 16:03:00,
2013-02-17 11:06:00,17.4,5.9,30.02,WNW,302,23.0,29.0,60,0.00,,,0.00,Wunderground v.1.15,2013-02-17 16:06:00,
2013-02-17 11:08:00,17.3,5.4,30.02,West,281,16.0,29.0,59,0.00,,,0.00,Wunderground v.1.15,2013-02-17 16:08:00,
2013-02-17 11:11:00,17.3,5.4,30.02,NW,304,19.0,19.0,59,0.00,,,0.00,Wunderground v.1.15,2013-02-17 16:11:00,
2013-02-17 11:13:00,17.3,5.4,30.02,WNW,283,14.0,24.0,59,0.00,,,0.00,Wunderground v.1.15,2013-02-17 16:13:00,
2013-02-17 11:14:00,17.4,5.5,30.02,WSW,246,17.0,24.0,59,0.00,,,0.00,Wunderground v.1.15,2013-02-17 16:14:00,
2013-02-17 11:16:00,17.5,5.6,30.02,WNW,302,11.0,24.0,59,0.00,,,0.00,Wunderground v.1.15,2013-02-17 16:16:00,
2013-02-17 11:17:00,17.5,5.6,30.02,West,259,9.0,24.0,59,0.00,,,0.00,Wunderground v.1.15,2013-02-17 16:17:00,
2013-02-17 11:18:00,17.6,5.7,30.02,NNW,327,11.0,24.0,59,0.00,,,0.00,Wunderground v.1.15,2013-02-17 16:18:00,
2013-02-17 11:19:00,17.7,5.4,30.02,WNW,289,10.0,24.0,58,0.00,,,0.00,Wunderground v.1.15,2013-02-17 16:19:00,
2013-02-17 11:21:00,17.7,5.8,30.02,West,274,6.0,15.0,59,0.00,,,0.00,Wunderground v.1.15,2013-02-17 16:21:00,
2013-02-17 11:22:00,17.8,6.0,30.02,West,279,10.0,22.0,59,0.00,,,0.00,weatherlink.com 1.10,2013-02-17 16:22:00,
2013-02-17 11:24:00,17.9,6.0,30.02,WNW,293,6.0,15.0,59,0.00,,,0.00,Wunderground v.1.15,2013-02-17 16:24:00,
2013-02-17 11:25:00,17.9,5.6,30.02,WNW,290,16.0,22.0,58,0.00,,,0.00,Wunderground v.1.15,2013-02-17 16:25:00,
2013-02-17 11:26:00,17.9,5.6,30.03,NW,314,15.0,24.0,58,0.00,,,0.00,Wunderground v.1.15,2013-02-17 16:26:00,
2013-02-17 11:27:00,18.0,5.3,30.02,NW,325,16.0,24.0,57,0.00,,,0.00,Wunderground v.1.15,2013-02-17 16:27:00,
2013-02-17 11:29:00,17.9,5.2,30.02,NNW,336,13.0,27.0,57,0.00,,,0.00,Wunderground v.1.15,2013-02-17 16:29:00,
2013-02-17 11:30:00,17.9,4.8,30.02,West,275,15.0,19.0,56,0.00,,,0.00,Wunderground v.1.15,2013-02-17 16:30:00,
2013-02-17 11:31:00,18.0,5.7,30.02,West,262,8.0,19.0,58,0.00,,,0.00,Wunderground v.1.15,2013-02-17 16:31:00,
2013-02-17 11:32:00,18.1,5.8,30.02,NW,318,12.0,20.0,58,0.00,,,0.00,Wunderground v.1.15,2013-02-17 16:32:00,
2013-02-17 11:34:00,18.1,5.4,30.02,WNW,287,19.0,32.0,57,0.00,,,0.00,Wunderground v.1.15,2013-02-17 16:34:00,
2013-02-17 11:35:00,18.2,5.9,30.02,NW,320,13.0,32.0,58,0.00,,,0.00,Wunderground v.1.15,2013-02-17 16:35:00,
2013-02-17 11:36:00,18.3,6.0,30.02,WNW,287,6.0,32.0,58,0.00,,,0.00,Wunderground v.1.15,2013-02-17 16:36:00,
2013-02-17 11:37:00,18.5,6.5,30.02,NW,304,13.0,32.0,59,0.00,,,0.00,Wunderground v.1.15,2013-02-17 16:37:00,
2013-02-17 11:39:00,18.7,6.7,30.02,WNW,297,10.0,32.0,59,0.00,,,0.00,Wunderground v.1.15,2013-02-17 16:39:00,
2013-02-17 11:40:00,19.0,7.0,30.02,WNW,290,8.0,14.0,59,0.00,,,0.00,Wunderground v.1.15,2013-02-17 16:40:00,
2013-02-17 11:41:00,19.1,6.7,30.02,NW,310,10.0,16.0,58,0.00,,,0.00,Wunderground v.1.15,2013-02-17 16:41:00,
2013-02-17 11:42:00,19.3,7.3,30.02,NW,304,14.0,16.0,59,0.00,,,0.00,Wunderground v.1.15,2013-02-17 16:42:00,
2013-02-17 11:44:00,19.4,7.0,30.02,NW,315,16.0,21.0,58,0.00,,,0.00,Wunderground v.1.15,2013-02-17 16:44:00,
2013-02-17 11:45:00,19.3,6.5,30.02,NW,311,10.0,21.0,57,0.00,,,0.00,Wunderground v.1.15,2013-02-17 16:45:00,
2013-02-17 11:47:00,19.3,6.5,30.02,West,277,16.0,21.0,57,0.00,,,0.00,Wunderground v.1.15,2013-02-17 16:47:00,
2013-02-17 11:48:00,19.4,6.6,30.02,WNW,285,7.0,21.0,57,0.00,,,0.00,Wunderground v.1.15,2013-02-17 16:48:00,
2013-02-17 11:49:00,19.5,7.1,30.02,West,267,10.0,21.0,58,0.00,,,0.00,Wunderground v.1.15,2013-02-17 16:49:00,
2013-02-17 11:51:00,19.7,6.9,30.02,NNW,330,7.0,17.0,57,0.00,,,0.00,Wunderground v.1.15,2013-02-17 16:51:00,
2013-02-17 11:52:00,19.6,6.4,30.02,NW,317,12.0,21.0,56,0.00,,,0.00,Wunderground v.1.15,2013-02-17 16:52:00,
2013-02-17 11:54:00,19.4,5.8,30.02,West,265,16.0,21.0,55,0.00,,,0.00,Wunderground v.1.15,2013-02-17 16:54:00,
2013-02-17 11:56:00,19.4,6.2,30.02,WNW,294,10.0,21.0,56,0.00,,,0.00,Wunderground v.1.15,2013-02-17 16:56:00,
2013-02-17 11:57:00,19.6,7.2,30.02,NNW,336,7.0,21.0,58,0.00,,,0.00,Wunderground v.1.15,2013-02-17 16:57:00,
2013-02-17 11:59:00,19.8,6.6,30.02,NW,308,13.0,21.0,56,0.00,,,0.00,Wunderground v.1.15,2013-02-17 16:59:00,
2013-02-17 12:00:00,19.7,6.5,30.02,NW,315,13.0,13.0,56,0.00,,,0.00,Wunderground v.1.15,2013-02-17 17:00:00,
2013-02-17 12:01:00,19.5,6.3,30.02,NNW,334,11.0,19.0,56,0.00,,,0.00,Wunderground v.1.15,2013-02-17 17:01:00,
2013-02-17 12:02:00,19.4,6.2,30.03,NW,318,24.0,24.0,56,0.00,,,0.00,Wunderground v.1.15,2013-02-17 17:02:00,
2013-02-17 12:04:00,19.3,6.1,30.02,NW,319,12.0,25.0,56,0.00,,,0.00,Wunderground v.1.15,2013-02-17 17:04:00,
2013-02-17 12:05:00,19.2,5.7,30.02,NW,308,14.0,27.0,55,0.00,,,0.00,Wunderground v.1.15,2013-02-17 17:05:00,
2013-02-17 12:06:00,19.2,6.1,30.02,West,279,15.0,27.0,56,0.00,,,0.00,Wunderground v.1.15,2013-02-17 17:06:00,
2013-02-17 12:08:00,19.3,6.1,30.02,NW,315,14.0,27.0,56,0.00,,,0.00,Wunderground v.1.15,2013-02-17 17:08:00,
2013-02-17 12:09:00,19.4,6.2,30.02,NW,304,20.0,27.0,56,0.00,,,0.00,Wunderground v.1.15,2013-02-17 17:09:00,
2013-02-17 12:10:00,19.4,6.2,30.02,NW,304,16.0,24.0,56,0.00,,,0.00,Wunderground v.1.15,2013-02-17 17:10:00,
2013-02-17 12:11:00,19.3,5.7,30.02,WNW,303,19.0,25.0,55,0.00,,,0.00,Wunderground v.1.15,2013-02-17 17:11:00,
2013-02-17 12:13:00,19.2,5.7,30.02,WNW,299,21.0,25.0,55,0.00,,,0.00,Wunderground v.1.15,2013-02-17 17:13:00,
2013-02-17 12:14:00,19.2,6.1,30.02,WNW,292,16.0,25.0,56,0.00,,,0.00,Wunderground v.1.15,2013-02-17 17:14:00,
2013-02-17 12:15:00,19.2,6.1,30.02,WNW,283,7.0,25.0,56,0.00,,,0.00,Wunderground v.1.15,2013-02-17 17:15:00,
2013-02-17 12:16:00,19.2,6.1,30.02,WNW,296,13.0,25.0,56,0.00,,,0.00,Wunderground v.1.15,2013-02-17 17:16:00,
2013-02-17 12:18:00,19.4,6.2,30.02,NNW,330,14.0,25.0,56,0.00,,,0.00,Wunderground v.1.15,2013-02-17 17:18:00,
2013-02-17 12:20:00,19.4,6.2,30.02,WNW,295,13.0,15.0,56,0.00,,,0.00,Wunderground v.1.15,2013-02-17 17:20:00,
2013-02-17 12:21:00,19.4,6.2,30.02,WNW,292,16.0,18.0,56,0.00,,,0.00,Wunderground v.1.15,2013-02-17 17:21:00,
2013-02-17 12:23:00,19.5,6.3,30.02,West,265,15.0,19.0,56,0.00,,,0.00,Wunderground v.1.15,2013-02-17 17:23:00,
2013-02-17 12:25:00,19.7,6.1,30.02,WNW,286,13.0,21.0,55,0.00,,,0.00,Wunderground v.1.15,2013-02-17 17:25:00,
2013-02-17 12:27:00,19.7,6.1,30.02,NNW,344,18.0,22.0,55,0.00,,,0.00,Wunderground v.1.15,2013-02-17 17:27:00,
2013-02-17 12:28:00,19.8,6.2,30.02,NW,314,8.0,22.0,55,0.00,,,0.00,Wunderground v.1.15,2013-02-17 17:28:00,
2013-02-17 12:30:00,19.9,6.3,30.02,WNW,291,13.0,23.0,55,0.00,,,0.00,Wunderground v.1.15,2013-02-17 17:30:00,
2013-02-17 12:32:00,19.9,6.3,30.02,WNW,298,19.0,23.0,55,0.00,,,0.00,Wunderground v.1.15,2013-02-17 17:32:00,
2013-02-17 12:33:00,20.0,6.4,30.02,NW,322,13.0,23.0,55,0.00,,,0.00,Wunderground v.1.15,2013-02-17 17:33:00,
2013-02-17 12:35:00,20.1,6.5,30.02,NW,316,11.0,23.0,55,0.00,,,0.00,Wunderground v.1.15,2013-02-17 17:35:00,
2013-02-17 12:38:00,20.3,6.7,30.02,WNW,288,7.0,23.0,55,0.00,,,0.00,Wunderground v.1.15,2013-02-17 17:38:00,
2013-02-17 12:39:00,20.6,7.4,30.02,WSW,257,8.0,23.0,56,0.00,,,0.00,Wunderground v.1.15,2013-02-17 17:39:00,
2013-02-17 12:41:00,20.9,7.2,30.02,NW,318,11.0,13.0,55,0.00,,,0.00,Wunderground v.1.15,2013-02-17 17:41:00,
2013-02-17 12:44:00,21.0,6.9,30.02,NNW,327,7.0,24.0,54,0.00,,,0.00,Wunderground v.1.15,2013-02-17 17:44:00,
2013-02-17 12:45:00,21.0,6.9,30.02,West,265,6.0,24.0,54,0.00,,,0.00,Wunderground v.1.15,2013-02-17 17:45:00,
2013-02-17 12:46:00,20.9,6.4,30.02,West,262,11.0,24.0,53,0.00,,,0.00,Wunderground v.1.15,2013-02-17 17:46:00,
2013-02-17 12:47:00,20.9,6.4,30.02,NW,306,14.0,24.0,53,0.00,,,0.00,Wunderground v.1.15,2013-02-17 17:47:00,
2013-02-17 12:49:00,20.7,5.8,30.02,WNW,284,12.0,24.0,52,0.00,,,0.00,Wunderground v.1.15,2013-02-17 17:49:00,
2013-02-17 12:50:00,20.5,5.2,30.02,WNW,299,12.0,14.0,51,0.00,,,0.00,Wunderground v.1.15,2013-02-17 17:50:00,
2013-02-17 12:51:00,20.2,5.4,30.02,WSW,241,16.0,16.0,52,0.00,,,0.00,Wunderground v.1.15,2013-02-17 17:51:00,
2013-02-17 12:52:00,20.2,5.4,30.02,WNW,285,17.0,18.0,52,0.00,,,0.00,Wunderground v.1.15,2013-02-17 17:52:00,
2013-02-17 12:54:00,20.1,5.7,30.02,NW,310,11.0,21.0,53,0.00,,,0.00,Wunderground v.1.15,2013-02-17 17:54:00,
2013-02-17 12:55:00,20.2,6.6,30.02,WNW,299,11.0,21.0,55,0.00,,,0.00,Wunderground v.1.15,2013-02-17 17:55:00,
2013-02-17 12:57:00,20.4,6.4,30.02,West,265,14.0,21.0,54,0.00,,,0.00,Wunderground v.1.15,2013-02-17 17:57:00,
2013-02-17 12:59:00,20.7,6.2,30.02,NW,315,10.0,21.0,53,0.00,,,0.00,Wunderground v.1.15,2013-02-17 17:59:00,
2013-02-17 13:00:00,20.8,6.3,30.02,West,279,5.0,12.0,53,0.00,,,0.00,Wunderground v.1.15,2013-02-17 18:00:00,
2013-02-17 13:02:00,21.1,6.6,30.02,West,280,6.0,12.0,53,0.00,,,0.00,Wunderground v.1.15,2013-02-17 18:02:00,
2013-02-17 13:05:00,21.6,6.7,30.02,NW,306,10.0,14.0,52,0.00,,,0.00,Wunderground v.1.15,2013-02-17 18:05:00,
2013-02-17 13:07:00,21.6,6.2,30.02,WSW,238,11.0,17.0,51,0.00,,,0.00,Wunderground v.1.15,2013-02-17 18:07:00,
2013-02-17 13:10:00,21.5,6.1,30.02,WNW,290,10.0,12.0,51,0.00,,,0.00,Wunderground v.1.15,2013-02-17 18:10:00,
2013-02-17 13:11:00,21.4,6.0,30.02,SW,231,10.0,12.0,51,0.00,,,0.00,Wunderground v.1.15,2013-02-17 18:11:00,
2013-02-17 13:12:00,21.4,6.0,30.02,WNW,300,11.0,13.0,51,0.00,,,0.00,Wunderground v.1.15,2013-02-17 18:12:00,
2013-02-17 13:13:00,21.5,6.1,30.02,WNW,300,15.0,20.0,51,0.00,,,0.00,Wunderground v.1.15,2013-02-17 18:13:00,
2013-02-17 13:15:00,21.6,6.2,30.02,WSW,244,22.0,22.0,51,0.00,,,0.00,Wunderground v.1.15,2013-02-17 18:15:00,
2013-02-17 13:16:00,21.7,5.9,30.02,WSW,242,13.0,22.0,50,0.00,,,0.00,Wunderground v.1.15,2013-02-17 18:16:00,
2013-02-17 13:17:00,21.7,5.9,30.02,WNW,300,16.0,22.0,50,0.00,,,0.00,Wunderground v.1.15,2013-02-17 18:17:00,
2013-02-17 13:18:00,21.9,6.5,30.02,WSW,239,9.0,22.0,51,0.00,,,0.00,Wunderground v.1.15,2013-02-17 18:18:00,
2013-02-17 13:20:00,22.2,6.4,30.02,West,267,14.0,19.0,50,0.00,,,0.00,Wunderground v.1.15,2013-02-17 18:20:00,
2013-02-17 13:21:00,22.1,6.3,30.02,WNW,297,10.0,19.0,50,0.00,,,0.00,Wunderground v.1.15,2013-02-17 18:21:00,
2013-02-17 13:22:00,22.0,5.7,30.02,NNW,346,6.0,19.0,49,0.00,,,0.00,Wunderground v.1.15,2013-02-17 18:22:00,
2013-02-17 13:24:00,22.1,6.7,30.02,NW,312,13.0,19.0,51,0.00,,,0.00,Wunderground v.1.15,2013-02-17 18:24:00,
2013-02-17 13:25:00,22.2,6.4,30.02,WNW,290,12.0,19.0,50,0.00,,,0.00,Wunderground v.1.15,2013-02-17 18:25:00,
2013-02-17 13:26:00,22.2,6.4,30.02,WNW,301,9.0,19.0,50,0.00,,,0.00,Wunderground v.1.15,2013-02-17 18:26:00,
2013-02-17 13:27:00,22.3,6.4,30.02,West,275,8.0,19.0,50,0.00,,,0.00,Wunderground v.1.15,2013-02-17 18:27:00,
2013-02-17 13:29:00,22.3,6.0,30.02,WNW,291,8.0,19.0,49,0.00,,,0.00,Wunderground v.1.15,2013-02-17 18:29:00,
2013-02-17 13:30:00,22.3,6.0,30.02,WNW,286,9.0,11.0,49,0.00,,,0.00,Wunderground v.1.15,2013-02-17 18:30:00,
2013-02-17 13:32:00,22.4,6.5,30.02,West,262,9.0,11.0,50,0.00,,,0.00,Wunderground v.1.15,2013-02-17 18:32:00,
2013-02-17 13:34:00,22.5,6.2,30.02,NW,324,18.0,18.0,49,0.00,,,0.00,Wunderground v.1.15,2013-02-17 18:34:00,
2013-02-17 13:36:00,22.5,6.2,30.02,West,280,9.0,18.0,49,0.00,,,0.00,Wunderground v.1.15,2013-02-17 18:36:00,
2013-02-17 13:37:00,22.6,6.3,30.02,WNW,289,7.0,18.0,49,0.00,,,0.00,Wunderground v.1.15,2013-02-17 18:37:00,
2013-02-17 13:39:00,22.8,6.5,30.02,WNW,298,9.0,18.0,49,0.00,,,0.00,Wunderground v.1.15,2013-02-17 18:39:00,
2013-02-17 13:41:00,22.8,6.5,30.02,WNW,294,7.0,16.0,49,0.00,,,0.00,Wunderground v.1.15,2013-02-17 18:41:00,
2013-02-17 13:42:00,22.8,6.5,30.02,West,259,13.0,18.0,49,0.00,,,0.00,Wunderground v.1.15,2013-02-17 18:42:00,
2013-02-17 13:45:00,22.5,6.2,30.02,WNW,298,8.0,18.0,49,0.00,,,0.00,Wunderground v.1.15,2013-02-17 18:45:00,
2013-02-17 13:46:00,22.4,6.1,30.02,West,271,9.0,23.0,49,0.00,,,0.00,Wunderground v.1.15,2013-02-17 18:46:00,
2013-02-17 13:47:00,22.4,6.1,30.02,NNW,328,11.0,23.0,49,0.00,,,0.00,Wunderground v.1.15,2013-02-17 18:47:00,
2013-02-17 13:48:00,22.4,6.1,30.02,NNW,338,7.0,23.0,49,0.00,,,0.00,Wunderground v.1.15,2013-02-17 18:48:00,
2013-02-17 13:50:00,22.3,5.6,30.02,NW,306,21.0,21.0,48,0.00,,,0.00,Wunderground v.1.15,2013-02-17 18:50:00,
2013-02-17 13:51:00,22.0,5.3,30.02,WNW,298,19.0,21.0,48,0.00,,,0.00,Wunderground v.1.15,2013-02-17 18:51:00,
2013-02-17 13:53:00,21.8,5.1,30.02,NNW,333,11.0,23.0,48,0.00,,,0.00,Wunderground v.1.15,2013-02-17 18:53:00,
2013-02-17 13:55:00,21.7,5.5,30.02,NW,319,12.0,23.0,49,0.00,,,0.00,Wunderground v.1.15,2013-02-17 18:55:00,
2013-02-17 13:56:00,21.7,5.5,30.02,West,268,6.0,23.0,49,0.00,,,0.00,Wunderground v.1.15,2013-02-17 18:56:00,
2013-02-17 13:58:00,21.8,5.5,30.02,NW,312,8.0,23.0,49,0.00,,,0.00,Wunderground v.1.15,2013-02-17 18:58:00,
2013-02-17 13:59:00,21.9,5.6,30.03,WNW,303,9.0,23.0,49,0.00,,,0.00,Wunderground v.1.15,2013-02-17 18:59:00,
2013-02-17 14:00:00,22.0,5.7,30.03,NW,306,11.0,19.0,49,0.00,,,0.00,Wunderground v.1.15,2013-02-17 19:00:00,
2013-02-17 14:02:00,22.0,5.7,30.03,West,269,5.0,19.0,49,0.00,,,0.00,Wunderground v.1.15,2013-02-17 19:02:00,
2013-02-17 14:03:00,22.0,5.7,30.03,WNW,300,8.0,19.0,49,0.00,,,0.00,Wunderground v.1.15,2013-02-17 19:03:00,
2013-02-17 14:05:00,22.1,5.8,30.03,NW,319,17.0,19.0,49,0.00,,,0.00,Wunderground v.1.15,2013-02-17 19:05:00,
2013-02-17 14:06:00,22.2,6.4,30.03,NNW,332,12.0,19.0,50,0.00,,,0.00,Wunderground v.1.15,2013-02-17 19:06:00,
2013-02-17 14:07:00,22.4,6.1,30.03,NW,315,14.0,19.0,49,0.00,,,0.00,Wunderground v.1.15,2013-02-17 19:07:00,
2013-02-17 14:08:00,22.5,6.2,30.03,NW,310,7.0,19.0,49,0.00,,,0.00,Wunderground v.1.15,2013-02-17 19:08:00,
2013-02-17 14:10:00,22.7,6.8,30.03,West,279,9.0,12.0,50,0.00,,,0.00,Wunderground v.1.15,2013-02-17 19:10:00,
2013-02-17 14:11:00,22.8,6.9,30.03,West,276,8.0,12.0,50,0.00,,,0.00,Wunderground v.1.15,2013-02-17 19:11:00,
2013-02-17 14:12:00,22.8,6.0,30.03,SSW,207,6.0,19.0,48,0.00,,,0.00,Wunderground v.1.15,2013-02-17 19:12:00,
2013-02-17 14:13:00,22.7,5.5,30.02,WNW,294,17.0,19.0,47,0.00,,,0.00,Wunderground v.1.15,2013-02-17 19:13:00,
2013-02-17 14:16:00,22.6,5.8,30.03,West,265,10.0,19.0,48,0.00,,,0.00,Wunderground v.1.15,2013-02-17 19:16:00,
2013-02-17 14:17:00,22.7,5.9,30.03,NNW,333,8.0,21.0,48,0.00,,,0.00,Wunderground v.1.15,2013-02-17 19:17:00,
2013-02-17 14:19:00,22.7,5.5,30.03,West,277,10.0,21.0,47,0.00,,,0.00,Wunderground v.1.15,2013-02-17 19:19:00,
2013-02-17 14:21:00,22.3,5.1,30.03,West,280,15.0,16.0,47,0.00,,,0.00,Wunderground v.1.15,2013-02-17 19:21:00,
2013-02-17 14:22:00,22.3,5.1,30.03,WNW,300,7.0,16.0,47,0.00,,,0.00,Wunderground v.1.15,2013-02-17 19:22:00,
2013-02-17 14:24:00,22.5,5.7,30.03,NW,306,9.0,16.0,48,0.00,,,0.00,Wunderground v.1.15,2013-02-17 19:24:00,
2013-02-17 14:26:00,22.9,6.1,30.03,SE,134,2.0,16.0,48,0.00,,,0.00,Wunderground v.1.15,2013-02-17 19:26:00,
2013-02-17 14:27:00,23.1,5.8,30.03,WNW,298,14.0,16.0,47,0.00,,,0.00,Wunderground v.1.15,2013-02-17 19:27:00,
2013-02-17 14:29:00,23.3,6.0,30.03,WNW,301,9.0,16.0,47,0.00,,,0.00,Wunderground v.1.15,2013-02-17 19:29:00,
2013-02-17 14:31:00,23.5,6.2,30.03,WNW,299,14.0,14.0,47,0.00,,,0.00,Wunderground v.1.15,2013-02-17 19:31:00,
2013-02-17 14:32:00,23.5,6.2,30.03,WNW,286,6.0,14.0,47,0.00,,,0.00,Wunderground v.1.15,2013-02-17 19:32:00,
2013-02-17 14:33:00,23.7,5.4,30.03,WNW,283,7.0,15.0,45,0.00,,,0.00,Wunderground v.1.15,2013-02-17 19:33:00,
2013-02-17 14:34:00,23.7,5.4,30.03,WNW,291,7.0,15.0,45,0.00,,,0.00,Wunderground v.1.15,2013-02-17 19:34:00,
2013-02-17 14:37:00,24.1,6.3,30.03,WNW,295,6.0,21.0,46,0.00,,,0.00,Wunderground v.1.15,2013-02-17 19:37:00,
2013-02-17 14:38:00,24.0,5.7,30.03,SW,232,9.0,21.0,45,0.00,,,0.00,Wunderground v.1.15,2013-02-17 19:38:00,
2013-02-17 14:39:00,24.0,5.7,30.03,West,264,6.0,21.0,45,0.00,,,0.00,Wunderground v.1.15,2013-02-17 19:39:00,
2013-02-17 14:42:00,23.8,5.5,30.03,WNW,292,12.0,19.0,45,0.00,,,0.00,Wunderground v.1.15,2013-02-17 19:42:00,
2013-02-17 14:43:00,23.8,6.0,30.03,WNW,296,18.0,20.0,46,0.00,,,0.00,Wunderground v.1.15,2013-02-17 19:43:00,
2013-02-17 14:44:00,23.6,5.3,30.03,WSW,249,14.0,24.0,45,0.00,,,0.00,Wunderground v.1.15,2013-02-17 19:44:00,
2013-02-17 14:47:00,23.6,5.8,30.03,West,260,8.0,24.0,46,0.00,,,0.00,Wunderground v.1.15,2013-02-17 19:47:00,
2013-02-17 14:49:00,23.6,6.3,30.03,West,267,8.0,24.0,47,0.00,,,0.00,Wunderground v.1.15,2013-02-17 19:49:00,
2013-02-17 14:52:00,23.4,6.1,30.03,West,279,7.0,11.0,47,0.00,,,0.00,Wunderground v.1.15,2013-02-17 19:52:00,
2013-02-17 14:54:00,23.3,6.5,30.03,West,265,16.0,16.0,48,0.00,,,0.00,Wunderground v.1.15,2013-02-17 19:54:00,
2013-02-17 14:57:00,23.5,6.7,30.03,West,263,6.0,16.0,48,0.00,,,0.00,Wunderground v.1.15,2013-02-17 19:57:00,
2013-02-17 14:58:00,23.6,6.8,30.03,NW,304,9.0,16.0,48,0.00,,,0.00,Wunderground v.1.15,2013-02-17 19:58:00,
2013-02-17 14:59:00,23.8,6.5,30.03,NW,311,7.0,16.0,47,0.00,,,0.00,Wunderground v.1.15,2013-02-17 19:59:00,
2013-02-17 15:00:00,23.8,6.5,30.03,WNW,288,11.0,11.0,47,0.00,,,0.00,Wunderground v.1.15,2013-02-17 20:00:00,
2013-02-17 15:03:00,24.1,6.7,30.03,WNW,301,8.0,13.0,47,0.00,,,0.00,Wunderground v.1.15,2013-02-17 20:03:00,
2013-02-17 15:04:00,24.3,6.9,30.03,WNW,294,15.0,15.0,47,0.00,,,0.00,Wunderground v.1.15,2013-02-17 20:04:00,
2013-02-17 15:05:00,24.3,6.5,30.03,WNW,294,13.0,15.0,46,0.00,,,0.00,Wunderground v.1.15,2013-02-17 20:05:00,
2013-02-17 15:08:00,23.9,5.6,30.03,NW,323,7.0,18.0,45,0.00,,,0.00,Wunderground v.1.15,2013-02-17 20:08:00,
2013-02-17 15:09:00,24.0,6.2,30.04,West,264,8.0,18.0,46,0.00,,,0.00,Wunderground v.1.15,2013-02-17 20:09:00,
2013-02-17 15:10:00,24.2,6.8,30.04,NW,306,12.0,12.0,47,0.00,,,0.00,Wunderground v.1.15,2013-02-17 20:10:00,
2013-02-17 15:13:00,23.8,5.0,30.04,NW,307,7.0,20.0,44,0.00,,,0.00,Wunderground v.1.15,2013-02-17 20:13:00,
2013-02-17 15:14:00,23.6,7.2,30.04,WSW,252,11.0,20.0,49,0.00,,,0.00,Wunderground v.1.15,2013-02-17 20:14:00,
2013-02-17 15:15:00,23.6,5.3,30.04,WNW,288,7.0,20.0,45,0.00,,,0.00,Wunderground v.1.15,2013-02-17 20:15:00,
2013-02-17 15:18:00,23.8,6.0,30.04,NW,325,11.0,20.0,46,0.00,,,0.00,Wunderground v.1.15,2013-02-17 20:18:00,
2013-02-17 15:19:00,23.8,5.5,30.04,NW,309,12.0,20.0,45,0.00,,,0.00,Wunderground v.1.15,2013-02-17 20:19:00,
2013-02-17 15:20:00,23.6,5.3,30.04,North,355,13.0,15.0,45,0.00,,,0.00,Wunderground v.1.15,2013-02-17 20:20:00,
2013-02-17 15:23:00,23.4,5.6,30.04,NW,308,10.0,21.0,46,0.00,,,0.00,Wunderground v.1.15,2013-02-17 20:23:00,
2013-02-17 15:24:00,23.4,5.6,30.04,NW,306,12.0,21.0,46,0.00,,,0.00,Wunderground v.1.15,2013-02-17 20:24:00,
2013-02-17 15:25:00,23.5,5.7,30.04,WSW,240,6.0,21.0,46,0.00,,,0.00,Wunderground v.1.15,2013-02-17 20:25:00,
2013-02-17 15:29:00,23.8,6.0,30.04,NNW,348,4.0,21.0,46,0.00,,,0.00,Wunderground v.1.15,2013-02-17 20:29:00,
2013-02-17 15:30:00,23.8,6.0,30.04,WNW,286,8.0,14.0,46,0.00,,,0.00,Wunderground v.1.15,2013-02-17 20:30:00,
2013-02-17 15:34:00,23.7,4.9,30.04,NW,326,16.0,23.0,44,0.00,,,0.00,Wunderground v.1.15,2013-02-17 20:34:00,
2013-02-17 15:35:00,23.6,4.8,30.04,NW,308,11.0,23.0,44,0.00,,,0.00,Wunderground v.1.15,2013-02-17 20:35:00,
2013-02-17 15:37:00,23.6,4.8,30.04,WNW,290,11.0,23.0,44,0.00,,,0.00,Wunderground v.1.15,2013-02-17 20:37:00,
2013-02-17 15:39:00,23.4,4.2,30.04,West,275,7.0,23.0,43,0.00,,,0.00,Wunderground v.1.15,2013-02-17 20:39:00,
2013-02-17 15:41:00,23.4,4.7,30.04,WNW,296,10.0,14.0,44,0.00,,,0.00,Wunderground v.1.15,2013-02-17 20:41:00,
2013-02-17 15:42:00,23.4,5.2,30.04,WSW,257,4.0,15.0,45,0.00,,,0.00,Wunderground v.1.15,2013-02-17 20:42:00,
2013-02-17 15:45:00,23.8,5.5,30.04,West,259,13.0,15.0,45,0.00,,,0.00,Wunderground v.1.15,2013-02-17 20:45:00,
2013-02-17 15:46:00,23.9,5.6,30.04,WNW,295,8.0,15.0,45,0.00,,,0.00,Wunderground v.1.15,2013-02-17 20:46:00,
2013-02-17 15:47:00,24.0,5.7,30.04,NNW,334,8.0,15.0,45,0.00,,,0.00,Wunderground v.1.15,2013-02-17 20:47:00,
2013-02-17 15:50:00,24.2,5.4,30.04,WNW,299,9.0,11.0,44,0.00,,,0.00,Wunderground v.1.15,2013-02-17 20:50:00,
2013-02-17 15:51:00,24.2,5.4,30.04,WNW,302,5.0,14.0,44,0.00,,,0.00,Wunderground v.1.15,2013-02-17 20:51:00,
2013-02-17 15:52:00,24.2,4.9,30.04,WNW,293,9.0,14.0,43,0.00,,,0.00,Wunderground v.1.15,2013-02-17 20:52:00,
2013-02-17 15:55:00,24.2,4.9,30.04,WNW,292,5.0,14.0,43,0.00,,,0.00,Wunderground v.1.15,2013-02-17 20:55:00,
2013-02-17 15:56:00,24.2,4.9,30.04,NW,318,2.0,14.0,43,0.00,,,0.00,Wunderground v.1.15,2013-02-17 20:56:00,
2013-02-17 15:58:00,24.3,5.5,30.04,NNW,348,11.0,19.0,44,0.00,,,0.00,Wunderground v.1.15,2013-02-17 20:58:00,
2013-02-17 16:00:00,24.2,4.9,30.05,West,280,18.0,18.0,43,0.00,,,0.00,Wunderground v.1.15,2013-02-17 21:00:00,
2013-02-17 16:01:00,24.1,5.3,30.04,WSW,258,11.0,18.0,44,0.00,,,0.00,Wunderground v.1.15,2013-02-17 21:01:00,
2013-02-17 16:03:00,24.1,5.3,30.05,West,265,6.0,18.0,44,0.00,,,0.00,Wunderground v.1.15,2013-02-17 21:03:00,
2013-02-17 16:05:00,24.2,5.9,30.04,NW,307,4.0,18.0,45,0.00,,,0.00,Wunderground v.1.15,2013-02-17 21:05:00,
2013-02-17 16:06:00,24.3,5.5,30.04,West,276,8.0,18.0,44,0.00,,,0.00,Wunderground v.1.15,2013-02-17 21:06:00,
2013-02-17 16:09:00,24.4,5.1,30.05,NW,311,14.0,18.0,43,0.00,,,0.00,Wunderground v.1.15,2013-02-17 21:09:00,
2013-02-17 16:10:00,24.3,5.0,30.05,NW,309,9.0,13.0,43,0.00,,,0.00,Wunderground v.1.15,2013-02-17 21:10:00,
2013-02-17 16:12:00,24.2,4.4,30.05,NW,318,17.0,17.0,42,0.00,,,0.00,Wunderground v.1.15,2013-02-17 21:12:00,
2013-02-17 16:14:00,24.2,4.9,30.05,WNW,294,8.0,18.0,43,0.00,,,0.00,Wunderground v.1.15,2013-02-17 21:14:00,
2013-02-17 16:15:00,24.2,5.4,30.05,WNW,286,7.0,18.0,44,0.00,,,0.00,Wunderground v.1.15,2013-02-17 21:15:00,
2013-02-17 16:17:00,24.2,4.9,30.05,WNW,301,9.0,18.0,43,0.00,,,0.00,Wunderground v.1.15,2013-02-17 21:17:00,
2013-02-17 16:18:00,24.2,4.9,30.05,NNW,329,8.0,18.0,43,0.00,,,0.00,Wunderground v.1.15,2013-02-17 21:18:00,
2013-02-17 16:19:00,24.2,4.9,30.05,WNW,296,10.0,18.0,43,0.00,,,0.00,Wunderground v.1.15,2013-02-17 21:19:00,
2013-02-17 16:21:00,24.1,4.8,30.06,NW,325,9.0,10.0,43,0.00,,,0.00,Wunderground v.1.15,2013-02-17 21:21:00,
2013-02-17 16:22:00,24.1,5.3,30.06,NW,306,6.0,10.0,44,0.00,,,0.00,Wunderground v.1.15,2013-02-17 21:22:00,
2013-02-17 16:23:00,24.1,4.8,30.05,WNW,297,9.0,10.0,43,0.00,,,0.00,Wunderground v.1.15,2013-02-17 21:23:00,
2013-02-17 16:24:00,24.1,4.8,30.06,NW,304,9.0,14.0,43,0.00,,,0.00,Wunderground v.1.15,2013-02-17 21:24:00,
2013-02-17 16:26:00,24.1,5.3,30.05,WNW,297,11.0,14.0,44,0.00,,,0.00,Wunderground v.1.15,2013-02-17 21:26:00,
2013-02-17 16:27:00,24.1,5.3,30.06,NNW,329,10.0,14.0,44,0.00,,,0.00,Wunderground v.1.15,2013-02-17 21:27:00,
2013-02-17 16:29:00,24.2,5.4,30.05,NW,317,6.0,14.0,44,0.00,,,0.00,Wunderground v.1.15,2013-02-17 21:29:00,
2013-02-17 16:30:00,24.2,5.4,30.05,WNW,297,8.0,10.0,44,0.00,,,0.00,Wunderground v.1.15,2013-02-17 21:30:00,
2013-02-17 16:31:00,24.3,5.5,30.05,West,265,9.0,10.0,44,0.00,,,0.00,Wunderground v.1.15,2013-02-17 21:31:00,
2013-02-17 16:32:00,24.3,5.5,30.06,West,269,7.0,13.0,44,0.00,,,0.00,Wunderground v.1.15,2013-02-17 21:32:00,
2013-02-17 16:34:00,24.4,5.6,30.05,NW,311,10.0,13.0,44,0.00,,,0.00,Wunderground v.1.15,2013-02-17 21:34:00,
2013-02-17 16:35:00,24.4,5.6,30.05,West,259,4.0,13.0,44,0.00,,,0.00,Wunderground v.1.15,2013-02-17 21:35:00,
2013-02-17 16:36:00,24.4,5.6,30.05,NW,313,10.0,13.0,44,0.00,,,0.00,Wunderground v.1.15,2013-02-17 21:36:00,
2013-02-17 16:37:00,24.4,5.6,30.05,NW,314,8.0,13.0,44,0.00,,,0.00,Wunderground v.1.15,2013-02-17 21:37:00,
2013-02-17 16:39:00,24.4,5.6,30.06,West,270,6.0,14.0,44,0.00,,,0.00,Wunderground v.1.15,2013-02-17 21:39:00,
2013-02-17 16:41:00,24.3,5.0,30.06,WSW,254,8.0,14.0,43,0.00,,,0.00,Wunderground v.1.15,2013-02-17 21:41:00,
2013-02-17 16:43:00,24.3,5.0,30.06,WNW,297,11.0,20.0,43,0.00,,,0.00,Wunderground v.1.15,2013-02-17 21:43:00,
2013-02-17 16:44:00,24.2,4.9,30.06,West,279,12.0,20.0,43,0.00,,,0.00,Wunderground v.1.15,2013-02-17 21:44:00,
2013-02-17 16:46:00,24.2,4.9,30.06,WNW,282,8.0,20.0,43,0.00,,,0.00,Wunderground v.1.15,2013-02-17 21:46:00,
2013-02-17 16:48:00,24.2,4.9,30.06,WNW,290,12.0,20.0,43,0.00,,,0.00,Wunderground v.1.15,2013-02-17 21:48:00,
2013-02-17 16:49:00,24.1,4.8,30.06,WNW,302,11.0,20.0,43,0.00,,,0.00,Wunderground v.1.15,2013-02-17 21:49:00,
2013-02-17 16:51:00,24.0,4.7,30.06,WNW,290,8.0,13.0,43,0.00,,,0.00,Wunderground v.1.15,2013-02-17 21:51:00,
2013-02-17 16:52:00,24.1,4.8,30.06,WNW,286,7.0,13.0,43,0.00,,,0.00,Wunderground v.1.15,2013-02-17 21:52:00,
2013-02-17 16:53:00,24.1,4.8,30.06,NW,304,5.0,13.0,43,0.00,,,0.00,Wunderground v.1.15,2013-02-17 21:53:00,
2013-02-17 16:54:00,24.1,4.8,30.06,NW,315,10.0,13.0,43,0.00,,,0.00,Wunderground v.1.15,2013-02-17 21:54:00,
2013-02-17 16:56:00,24.2,4.9,30.06,WNW,290,15.0,15.0,43,0.00,,,0.00,Wunderground v.1.15,2013-02-17 21:56:00,
2013-02-17 16:57:00,24.2,4.9,30.06,NNW,327,10.0,15.0,43,0.00,,,0.00,Wunderground v.1.15,2013-02-17 21:57:00,
2013-02-17 16:59:00,24.1,4.8,30.06,NW,316,7.0,15.0,43,0.00,,,0.00,Wunderground v.1.15,2013-02-17 21:59:00,
2013-02-17 17:01:00,24.1,4.8,30.06,NW,313,4.0,13.0,43,0.00,,,0.00,Wunderground v.1.15,2013-02-17 22:01:00,
2013-02-17 17:02:00,24.1,4.8,30.06,West,273,7.0,13.0,43,0.00,,,0.00,Wunderground v.1.15,2013-02-17 22:02:00,
2013-02-17 17:04:00,24.2,5.4,30.06,WNW,298,11.0,13.0,44,0.00,,,0.00,Wunderground v.1.15,2013-02-17 22:04:00,
2013-02-17 17:07:00,24.1,5.3,30.06,West,274,9.0,13.0,44,0.00,,,0.00,Wunderground v.1.15,2013-02-17 22:07:00,
2013-02-17 17:10:00,24.0,5.2,30.06,WNW,283,5.0,7.0,44,0.00,,,0.00,Wunderground v.1.15,2013-02-17 22:10:00,
2013-02-17 17:12:00,23.9,5.1,30.06,West,275,4.0,10.0,44,0.00,,,0.00,Wunderground v.1.15,2013-02-17 22:12:00,
2013-02-17 17:15:00,23.8,5.0,30.07,WNW,290,3.0,14.0,44,0.00,,,0.00,Wunderground v.1.15,2013-02-17 22:15:00,
2013-02-17 17:17:00,23.7,4.9,30.07,WNW,294,12.0,16.0,44,0.00,,,0.00,Wunderground v.1.15,2013-02-17 22:17:00,
2013-02-17 17:20:00,23.6,4.8,30.06,West,277,9.0,14.0,44,0.00,,,0.00,Wunderground v.1.15,2013-02-17 22:20:00,
2013-02-17 17:21:00,23.6,4.8,30.06,WNW,286,4.0,14.0,44,0.00,,,0.00,Wunderground v.1.15,2013-02-17 22:21:00,
2013-02-17 17:23:00,23.6,4.8,30.07,NW,306,6.0,14.0,44,0.00,,,0.00,Wunderground v.1.15,2013-02-17 22:23:00,
2013-02-17 17:25:00,23.5,4.8,30.07,West,265,6.0,14.0,44,0.00,,,0.00,Wunderground v.1.15,2013-02-17 22:25:00,
2013-02-17 17:26:00,23.5,4.8,30.07,NW,308,5.0,14.0,44,0.00,,,0.00,Wunderground v.1.15,2013-02-17 22:26:00,
2013-02-17 17:28:00,23.5,4.8,30.07,WNW,298,6.0,14.0,44,0.00,,,0.00,Wunderground v.1.15,2013-02-17 22:28:00,
2013-02-17 17:31:00,23.4,4.7,30.07,West,281,6.0,8.0,44,0.00,,,0.00,Wunderground v.1.15,2013-02-17 22:31:00,
2013-02-17 17:32:00,23.4,4.7,30.07,WNW,287,6.0,9.0,44,0.00,,,0.00,Wunderground v.1.15,2013-02-17 22:32:00,
2013-02-17 17:33:00,23.3,5.1,30.07,WNW,293,4.0,9.0,45,0.00,,,0.00,Wunderground v.1.15,2013-02-17 22:33:00,
2013-02-17 17:36:00,23.2,5.0,30.07,WNW,298,6.0,9.0,45,0.00,,,0.00,Wunderground v.1.15,2013-02-17 22:36:00,
2013-02-17 17:38:00,23.2,5.0,30.07,WNW,290,8.0,14.0,45,0.00,,,0.00,Wunderground v.1.15,2013-02-17 22:38:00,
2013-02-17 17:39:00,23.1,4.9,30.08,WNW,295,12.0,14.0,45,0.00,,,0.00,Wunderground v.1.15,2013-02-17 22:39:00,
2013-02-17 17:42:00,23.1,4.9,30.08,West,279,9.0,14.0,45,0.00,,,0.00,Wunderground v.1.15,2013-02-17 22:42:00,
2013-02-17 17:43:00,23.1,4.9,30.08,WNW,302,12.0,14.0,45,0.00,,,0.00,Wunderground v.1.15,2013-02-17 22:43:00,
2013-02-17 17:44:00,23.1,4.9,30.08,WNW,284,8.0,14.0,45,0.00,,,0.00,Wunderground v.1.15,2013-02-17 22:44:00,
2013-02-17 17:48:00,23.0,5.3,30.08,West,265,4.0,14.0,46,0.00,,,0.00,Wunderground v.1.15,2013-02-17 22:48:00,
2013-02-17 17:49:00,23.0,5.3,30.08,WNW,296,7.0,14.0,46,0.00,,,0.00,Wunderground v.1.15,2013-02-17 22:49:00,
2013-02-17 17:53:00,23.0,5.3,30.08,WNW,294,5.0,11.0,46,0.00,,,0.00,Wunderground v.1.15,2013-02-17 22:53:00,
2013-02-17 17:54:00,23.0,4.8,30.08,North,9,3.0,11.0,45,0.00,,,0.00,Wunderground v.1.15,2013-02-17 22:54:00,
2013-02-17 17:58:00,22.9,5.2,30.08,WNW,297,8.0,11.0,46,0.00,,,0.00,Wunderground v.1.15,2013-02-17 22:58:00,
2013-02-17 17:59:00,22.9,4.7,30.08,NW,309,6.0,11.0,45,0.00,,,0.00,Wunderground v.1.15,2013-02-17 22:59:00,
2013-02-17 18:03:00,22.8,5.1,30.08,NW,309,8.0,11.0,46,0.00,,,0.00,Wunderground v.1.15,2013-02-17 23:03:00,
2013-02-17 18:04:00,22.7,5.0,30.08,WSW,254,11.0,11.0,46,0.00,,,0.00,Wunderground v.1.15,2013-02-17 23:04:00,
2013-02-17 18:06:00,22.7,5.0,30.08,NW,317,6.0,11.0,46,0.00,,,0.00,Wunderground v.1.15,2013-02-17 23:06:00,
2013-02-17 18:08:00,22.7,5.0,30.08,WNW,297,5.0,13.0,46,0.00,,,0.00,Wunderground v.1.15,2013-02-17 23:08:00,
2013-02-17 18:09:00,22.6,4.9,30.08,NW,319,5.0,13.0,46,0.00,,,0.00,Wunderground v.1.15,2013-02-17 23:09:00,
2013-02-17 18:11:00,22.6,4.9,30.08,NW,318,6.0,11.0,46,0.00,,,0.00,Wunderground v.1.15,2013-02-17 23:11:00,
2013-02-17 18:13:00,22.6,4.9,30.08,West,279,6.0,16.0,46,0.00,,,0.00,Wunderground v.1.15,2013-02-17 23:13:00,
2013-02-17 18:14:00,22.6,5.4,30.08,WNW,303,6.0,16.0,47,0.00,,,0.00,Wunderground v.1.15,2013-02-17 23:14:00,
2013-02-17 18:15:00,22.6,5.4,30.08,WNW,293,5.0,16.0,47,0.00,,,0.00,Wunderground v.1.15,2013-02-17 23:15:00,
2013-02-17 18:16:00,22.6,5.4,30.08,NW,304,5.0,16.0,47,0.00,,,0.00,Wunderground v.1.15,2013-02-17 23:16:00,
2013-02-17 18:20:00,22.5,5.3,30.09,WNW,294,4.0,6.0,47,0.00,,,0.00,Wunderground v.1.15,2013-02-17 23:20:00,
2013-02-17 18:21:00,22.5,5.3,30.09,WNW,298,4.0,8.0,47,0.00,,,0.00,Wunderground v.1.15,2013-02-17 23:21:00,
2013-02-17 18:25:00,22.4,5.0,30.09,WNW,291,7.0,10.0,48,0.00,,,0.00,weatherlink.com 1.10,2013-02-17 23:25:00,
2013-02-17 18:26:00,22.4,5.6,30.09,WNW,302,6.0,10.0,48,0.00,,,0.00,Wunderground v.1.15,2013-02-17 23:26:00,
2013-02-17 18:30:00,22.3,5.6,30.09,West,280,7.0,11.0,48,0.00,,,0.00,Wunderground v.1.15,2013-02-17 23:30:00,
2013-02-17 18:31:00,22.3,5.6,30.09,NW,304,3.0,11.0,48,0.00,,,0.00,Wunderground v.1.15,2013-02-17 23:31:00,
2013-02-17 18:35:00,22.2,5.5,30.09,WNW,292,3.0,11.0,48,0.00,,,0.00,Wunderground v.1.15,2013-02-17 23:35:00,
2013-02-17 18:36:00,22.2,5.5,30.09,NW,321,2.0,11.0,48,0.00,,,0.00,Wunderground v.1.15,2013-02-17 23:36:00,
2013-02-17 18:40:00,22.2,5.5,30.09,WNW,300,5.0,5.0,48,0.00,,,0.00,Wunderground v.1.15,2013-02-17 23:40:00,
2013-02-17 18:41:00,22.2,5.5,30.09,WNW,288,4.0,8.0,48,0.00,,,0.00,Wunderground v.1.15,2013-02-17 23:41:00,
2013-02-17 18:45:00,22.2,5.5,30.09,NW,306,5.0,11.0,48,0.00,,,0.00,Wunderground v.1.15,2013-02-17 23:45:00,
2013-02-17 18:46:00,22.2,5.5,30.09,WNW,293,7.0,11.0,48,0.00,,,0.00,Wunderground v.1.15,2013-02-17 23:46:00,
2013-02-17 18:47:00,22.2,5.5,30.09,West,273,6.0,11.0,48,0.00,,,0.00,Wunderground v.1.15,2013-02-17 23:47:00,
2013-02-17 18:50:00,22.2,5.5,30.10,WSW,254,6.0,7.0,48,0.00,,,0.00,Wunderground v.1.15,2013-02-17 23:50:00,
2013-02-17 18:51:00,22.2,5.5,30.10,WNW,286,9.0,9.0,48,0.00,,,0.00,Wunderground v.1.15,2013-02-17 23:51:00,
2013-02-17 18:53:00,22.2,5.5,30.10,NW,322,7.0,9.0,48,0.00,,,0.00,Wunderground v.1.15,2013-02-17 23:53:00,
2013-02-17 18:56:00,22.1,5.8,30.09,WNW,284,3.0,10.0,49,0.00,,,0.00,Wunderground v.1.15,2013-02-17 23:56:00,
2013-02-17 18:57:00,22.2,5.9,30.10,WNW,292,8.0,10.0,49,0.00,,,0.00,Wunderground v.1.15,2013-02-17 23:57:00,
2013-02-17 18:59:00,22.1,5.8,30.10,NW,321,3.0,10.0,49,0.00,,,0.00,Wunderground v.1.15,2013-02-17 23:59:00,
2013-02-17 19:01:00,22.1,5.8,30.10,WNW,301,3.0,7.0,49,0.00,,,0.00,Wunderground v.1.15,2013-02-18 00:01:00,
2013-02-17 19:02:00,22.0,5.7,30.10,WNW,296,6.0,7.0,49,0.00,,,0.00,Wunderground v.1.15,2013-02-18 00:02:00,
2013-02-17 19:04:00,22.0,5.7,30.10,NW,314,6.0,9.0,49,0.00,,,0.00,Wunderground v.1.15,2013-02-18 00:04:00,
2013-02-17 19:06:00,21.9,5.6,30.10,WNW,300,6.0,9.0,49,0.00,,,0.00,Wunderground v.1.15,2013-02-18 00:06:00,
2013-02-17 19:08:00,21.9,5.6,30.10,WNW,295,5.0,9.0,49,0.00,,,0.00,Wunderground v.1.15,2013-02-18 00:08:00,
2013-02-17 19:09:00,21.9,5.6,30.10,WNW,298,4.0,9.0,49,0.00,,,0.00,Wunderground v.1.15,2013-02-18 00:09:00,
2013-02-17 19:11:00,21.9,6.1,30.10,WNW,294,6.0,10.0,50,0.00,,,0.00,Wunderground v.1.15,2013-02-18 00:11:00,
2013-02-17 19:12:00,21.8,6.0,30.10,WNW,295,9.0,10.0,50,0.00,,,0.00,Wunderground v.1.15,2013-02-18 00:12:00,
2013-02-17 19:13:00,21.8,6.0,30.10,NW,312,7.0,12.0,50,0.00,,,0.00,Wunderground v.1.15,2013-02-18 00:13:00,
2013-02-17 19:14:00,21.8,6.0,30.10,NW,314,5.0,12.0,50,0.00,,,0.00,Wunderground v.1.15,2013-02-18 00:14:00,
2013-02-17 19:16:00,21.8,6.0,30.10,WNW,299,7.0,12.0,50,0.00,,,0.00,Wunderground v.1.15,2013-02-18 00:16:00,
2013-02-17 19:17:00,21.8,6.0,30.10,NW,311,7.0,12.0,50,0.00,,,0.00,Wunderground v.1.15,2013-02-18 00:17:00,
2013-02-17 19:18:00,21.8,6.0,30.10,NW,313,7.0,12.0,50,0.00,,,0.00,Wunderground v.1.15,2013-02-18 00:18:00,
2013-02-17 19:19:00,21.8,6.0,30.10,WNW,286,7.0,12.0,50,0.00,,,0.00,Wunderground v.1.15,2013-02-18 00:19:00,
2013-02-17 19:22:00,21.8,6.0,30.10,WNW,294,8.0,9.0,50,0.00,,,0.00,Wunderground v.1.15,2013-02-18 00:22:00,
2013-02-17 19:23:00,21.8,6.0,30.10,NNW,329,6.0,9.0,50,0.00,,,0.00,Wunderground v.1.15,2013-02-18 00:23:00,
2013-02-17 19:25:00,21.8,6.0,30.09,WNW,286,8.0,9.0,50,0.00,,,0.00,Wunderground v.1.15,2013-02-18 00:25:00,
2013-02-17 19:27:00,21.8,6.0,30.09,NNW,344,3.0,11.0,50,0.00,,,0.00,Wunderground v.1.15,2013-02-18 00:27:00,
2013-02-17 19:28:00,21.8,6.0,30.09,WNW,286,6.0,11.0,50,0.00,,,0.00,Wunderground v.1.15,2013-02-18 00:28:00,
2013-02-17 19:30:00,21.7,6.3,30.10,WNW,294,8.0,8.0,51,0.00,,,0.00,Wunderground v.1.15,2013-02-18 00:30:00,
2013-02-17 19:33:00,21.7,6.3,30.09,West,279,7.0,10.0,51,0.00,,,0.00,Wunderground v.1.15,2013-02-18 00:33:00,
2013-02-17 19:34:00,21.7,6.3,30.09,WNW,292,9.0,13.0,51,0.00,,,0.00,Wunderground v.1.15,2013-02-18 00:34:00,
2013-02-17 19:35:00,21.6,6.2,30.09,WNW,289,7.0,13.0,51,0.00,,,0.00,Wunderground v.1.15,2013-02-18 00:35:00,
2013-02-17 19:38:00,21.6,6.2,30.10,NW,311,8.0,16.0,51,0.00,,,0.00,Wunderground v.1.15,2013-02-18 00:38:00,
2013-02-17 19:39:00,21.6,6.2,30.10,NW,315,6.0,16.0,51,0.00,,,0.00,Wunderground v.1.15,2013-02-18 00:39:00,
2013-02-17 19:40:00,21.6,6.2,30.10,NW,322,4.0,7.0,51,0.00,,,0.00,Wunderground v.1.15,2013-02-18 00:40:00,
2013-02-17 19:43:00,21.5,6.1,30.09,WNW,288,10.0,12.0,51,0.00,,,0.00,Wunderground v.1.15,2013-02-18 00:43:00,
2013-02-17 19:44:00,21.6,6.2,30.10,West,278,6.0,12.0,51,0.00,,,0.00,Wunderground v.1.15,2013-02-18 00:44:00,
2013-02-17 19:45:00,21.5,6.1,30.09,WNW,294,7.0,12.0,51,0.00,,,0.00,Wunderground v.1.15,2013-02-18 00:45:00,
2013-02-17 19:48:00,21.5,6.1,30.09,WNW,289,3.0,12.0,51,0.00,,,0.00,Wunderground v.1.15,2013-02-18 00:48:00,
2013-02-17 19:49:00,21.5,6.1,30.09,NW,313,13.0,14.0,51,0.00,,,0.00,Wunderground v.1.15,2013-02-18 00:49:00,
2013-02-17 19:50:00,21.5,6.1,30.09,WNW,288,6.0,7.0,51,0.00,,,0.00,Wunderground v.1.15,2013-02-18 00:50:00,
2013-02-17 19:51:00,21.5,6.6,30.09,WNW,292,10.0,10.0,52,0.00,,,0.00,Wunderground v.1.15,2013-02-18 00:51:00,
2013-02-17 19:53:00,21.5,6.6,30.09,NW,312,5.0,12.0,52,0.00,,,0.00,Wunderground v.1.15,2013-02-18 00:53:00,
2013-02-17 19:54:00,21.4,6.5,30.09,NW,326,6.0,12.0,52,0.00,,,0.00,Wunderground v.1.15,2013-02-18 00:54:00,
2013-02-17 19:55:00,21.4,6.5,30.09,WNW,287,9.0,12.0,52,0.00,,,0.00,Wunderground v.1.15,2013-02-18 00:55:00,
2013-02-17 19:56:00,21.4,6.5,30.10,WNW,300,10.0,12.0,52,0.00,,,0.00,Wunderground v.1.15,2013-02-18 00:56:00,
2013-02-17 19:58:00,21.4,6.5,30.09,NW,307,4.0,12.0,52,0.00,,,0.00,Wunderground v.1.15,2013-02-18 00:58:00,
2013-02-17 19:59:00,21.4,6.5,30.10,WNW,300,7.0,12.0,52,0.00,,,0.00,Wunderground v.1.15,2013-02-18 00:59:00,
2013-02-17 20:00:00,21.4,6.5,30.10,NW,313,11.0,11.0,52,0.00,,,0.00,Wunderground v.1.15,2013-02-18 01:00:00,
2013-02-17 20:01:00,21.4,6.5,30.10,WNW,297,8.0,11.0,52,0.00,,,0.00,Wunderground v.1.15,2013-02-18 01:01:00,
2013-02-17 20:03:00,21.4,6.0,30.10,NW,309,8.0,11.0,51,0.00,,,0.00,Wunderground v.1.15,2013-02-18 01:03:00,
2013-02-17 20:04:00,21.4,6.0,30.10,WNW,296,12.0,13.0,51,0.00,,,0.00,Wunderground v.1.15,2013-02-18 01:04:00,
2013-02-17 20:05:00,21.4,6.5,30.10,WNW,289,7.0,13.0,52,0.00,,,0.00,Wunderground v.1.15,2013-02-18 01:05:00,
2013-02-17 20:06:00,21.5,6.1,30.10,WNW,294,7.0,13.0,51,0.00,,,0.00,Wunderground v.1.15,2013-02-18 01:06:00,
2013-02-17 20:08:00,21.4,6.5,30.10,WNW,289,7.0,13.0,52,0.00,,,0.00,Wunderground v.1.15,2013-02-18 01:08:00,
2013-02-17 20:09:00,21.4,6.5,30.10,NW,314,9.0,13.0,52,0.00,,,0.00,Wunderground v.1.15,2013-02-18 01:09:00,
2013-02-17 20:11:00,21.4,6.5,30.10,NW,313,8.0,11.0,52,0.00,,,0.00,Wunderground v.1.15,2013-02-18 01:11:00,
2013-02-17 20:12:00,21.4,6.5,30.10,WNW,298,7.0,11.0,52,0.00,,,0.00,Wunderground v.1.15,2013-02-18 01:12:00,
2013-02-17 20:13:00,21.3,6.4,30.10,West,267,8.0,11.0,52,0.00,,,0.00,Wunderground v.1.15,2013-02-18 01:13:00,
2013-02-17 20:15:00,21.3,6.4,30.10,WNW,286,8.0,12.0,52,0.00,,,0.00,Wunderground v.1.15,2013-02-18 01:15:00,
2013-02-17 20:16:00,21.3,6.4,30.10,NW,304,6.0,12.0,52,0.00,,,0.00,Wunderground v.1.15,2013-02-18 01:16:00,
2013-02-17 20:18:00,21.3,6.4,30.10,West,276,7.0,12.0,52,0.00,,,0.00,Wunderground v.1.15,2013-02-18 01:18:00,
2013-02-17 20:20:00,21.3,6.4,30.10,West,281,6.0,7.0,52,0.00,,,0.00,Wunderground v.1.15,2013-02-18 01:20:00,
2013-02-17 20:21:00,21.2,6.3,30.10,WNW,292,7.0,13.0,52,0.00,,,0.00,Wunderground v.1.15,2013-02-18 01:21:00,
2013-02-17 20:23:00,21.2,6.3,30.10,WNW,298,4.0,13.0,52,0.00,,,0.00,Wunderground v.1.15,2013-02-18 01:23:00,
2013-02-17 20:24:00,21.2,6.3,30.10,NW,321,5.0,13.0,52,0.00,,,0.00,Wunderground v.1.15,2013-02-18 01:24:00,
2013-02-17 20:25:00,21.2,6.3,30.10,West,271,6.0,13.0,52,0.00,,,0.00,Wunderground v.1.15,2013-02-18 01:25:00,
2013-02-17 20:26:00,21.2,6.3,30.10,WNW,300,5.0,13.0,52,0.00,,,0.00,Wunderground v.1.15,2013-02-18 01:26:00,
2013-02-17 20:28:00,21.2,5.9,30.10,West,280,5.0,13.0,51,0.00,,,0.00,Wunderground v.1.15,2013-02-18 01:28:00,
2013-02-17 20:29:00,21.2,5.9,30.10,WNW,294,3.0,13.0,51,0.00,,,0.00,Wunderground v.1.15,2013-02-18 01:29:00,
2013-02-17 20:30:00,21.2,5.9,30.10,West,275,5.0,8.0,51,0.00,,,0.00,Wunderground v.1.15,2013-02-18 01:30:00,
2013-02-17 20:31:00,21.2,5.9,30.10,WNW,289,10.0,10.0,51,0.00,,,0.00,Wunderground v.1.15,2013-02-18 01:31:00,
2013-02-17 20:33:00,21.3,6.0,30.10,West,260,5.0,11.0,51,0.00,,,0.00,Wunderground v.1.15,2013-02-18 01:33:00,
2013-02-17 20:34:00,21.3,6.0,30.10,NW,325,1.0,11.0,51,0.00,,,0.00,Wunderground v.1.15,2013-02-18 01:34:00,
2013-02-17 20:35:00,21.3,6.0,30.10,SW,229,4.0,11.0,51,0.00,,,0.00,Wunderground v.1.15,2013-02-18 01:35:00,
2013-02-17 20:36:00,21.3,5.5,30.10,West,271,5.0,11.0,50,0.00,,,0.00,Wunderground v.1.15,2013-02-18 01:36:00,
2013-02-17 20:38:00,21.3,5.5,30.10,WNW,286,6.0,14.0,50,0.00,,,0.00,Wunderground v.1.15,2013-02-18 01:38:00,
2013-02-17 20:39:00,21.3,5.5,30.10,WNW,293,8.0,14.0,50,0.00,,,0.00,Wunderground v.1.15,2013-02-18 01:39:00,
2013-02-17 20:41:00,21.4,5.6,30.11,WSW,244,11.0,11.0,50,0.00,,,0.00,Wunderground v.1.15,2013-02-18 01:41:00,
2013-02-17 20:44:00,21.4,5.6,30.11,WNW,293,11.0,14.0,50,0.00,,,0.00,Wunderground v.1.15,2013-02-18 01:44:00,
2013-02-17 20:46:00,21.3,5.5,30.11,WNW,302,3.0,14.0,50,0.00,,,0.00,Wunderground v.1.15,2013-02-18 01:46:00,
2013-02-17 20:49:00,21.3,5.5,30.11,WNW,300,2.0,14.0,50,0.00,,,0.00,Wunderground v.1.15,2013-02-18 01:49:00,
2013-02-17 20:51:00,21.3,5.5,30.11,West,280,5.0,11.0,50,0.00,,,0.00,Wunderground v.1.15,2013-02-18 01:51:00,
2013-02-17 20:52:00,21.3,5.5,30.11,WNW,288,5.0,11.0,50,0.00,,,0.00,Wunderground v.1.15,2013-02-18 01:52:00,
2013-02-17 20:54:00,21.3,5.5,30.11,NW,317,10.0,11.0,50,0.00,,,0.00,Wunderground v.1.15,2013-02-18 01:54:00,
2013-02-17 20:56:00,21.3,5.1,30.11,WNW,302,5.0,11.0,49,0.00,,,0.00,Wunderground v.1.15,2013-02-18 01:56:00,
2013-02-17 20:57:00,21.3,5.1,30.11,WNW,294,6.0,11.0,49,0.00,,,0.00,Wunderground v.1.15,2013-02-18 01:57:00,
2013-02-17 20:59:00,21.3,5.1,30.11,WNW,300,2.0,11.0,49,0.00,,,0.00,Wunderground v.1.15,2013-02-18 01:59:00,
2013-02-17 21:02:00,21.3,5.1,30.11,WNW,299,4.0,6.0,49,0.00,,,0.00,Wunderground v.1.15,2013-02-18 02:02:00,
2013-02-17 21:04:00,21.3,5.1,30.11,NW,315,6.0,9.0,49,0.00,,,0.00,Wunderground v.1.15,2013-02-18 02:04:00,
2013-02-17 21:05:00,21.3,5.1,30.11,NW,304,10.0,10.0,49,0.00,,,0.00,Wunderground v.1.15,2013-02-18 02:05:00,
2013-02-17 21:07:00,21.2,5.4,30.11,WNW,290,3.0,10.0,50,0.00,,,0.00,Wunderground v.1.15,2013-02-18 02:07:00,
2013-02-17 21:09:00,21.2,5.0,30.11,NW,321,5.0,10.0,49,0.00,,,0.00,Wunderground v.1.15,2013-02-18 02:09:00,
2013-02-17 21:10:00,21.2,5.4,30.11,WSW,256,4.0,6.0,50,0.00,,,0.00,Wunderground v.1.15,2013-02-18 02:10:00,
2013-02-17 21:12:00,21.2,5.0,30.11,WNW,296,4.0,12.0,49,0.00,,,0.00,Wunderground v.1.15,2013-02-18 02:12:00,
2013-02-17 21:14:00,21.3,5.1,30.12,NW,318,5.0,12.0,49,0.00,,,0.00,Wunderground v.1.15,2013-02-18 02:14:00,
2013-02-17 21:15:00,21.3,5.1,30.12,WNW,285,3.0,12.0,49,0.00,,,0.00,Wunderground v.1.15,2013-02-18 02:15:00,
2013-02-17 21:17:00,21.2,5.0,30.12,NW,304,9.0,12.0,49,0.00,,,0.00,Wunderground v.1.15,2013-02-18 02:17:00,
2013-02-17 21:18:00,21.3,5.1,30.12,WNW,297,6.0,12.0,49,0.00,,,0.00,Wunderground v.1.15,2013-02-18 02:18:00,
2013-02-17 21:20:00,21.3,5.1,30.12,NW,308,4.0,7.0,49,0.00,,,0.00,Wunderground v.1.15,2013-02-18 02:20:00,
2013-02-17 21:23:00,21.2,5.0,30.12,WNW,294,3.0,7.0,49,0.00,,,0.00,Wunderground v.1.15,2013-02-18 02:23:00,
2013-02-17 21:25:00,21.2,5.0,30.12,NNW,332,1.0,7.0,49,0.00,,,0.00,Wunderground v.1.15,2013-02-18 02:25:00,
2013-02-17 21:28:00,21.2,5.0,30.12,WNW,298,6.0,7.0,49,0.00,,,0.00,Wunderground v.1.15,2013-02-18 02:28:00,
2013-02-17 21:29:00,21.2,5.0,30.12,WNW,302,3.0,7.0,49,0.00,,,0.00,Wunderground v.1.15,2013-02-18 02:29:00,
2013-02-17 21:30:00,21.2,5.0,30.12,NW,305,3.0,4.0,49,0.00,,,0.00,Wunderground v.1.15,2013-02-18 02:30:00,
2013-02-17 21:33:00,21.2,5.0,30.12,NW,321,7.0,11.0,49,0.00,,,0.00,Wunderground v.1.15,2013-02-18 02:33:00,
2013-02-17 21:34:00,21.2,5.0,30.12,WNW,294,8.0,11.0,49,0.00,,,0.00,Wunderground v.1.15,2013-02-18 02:34:00,
2013-02-17 21:35:00,21.3,5.1,30.12,NW,305,5.0,11.0,49,0.00,,,0.00,Wunderground v.1.15,2013-02-18 02:35:00,
2013-02-17 21:36:00,21.3,5.1,30.13,NW,309,3.0,11.0,49,0.00,,,0.00,Wunderground v.1.15,2013-02-18 02:36:00,
2013-02-17 21:39:00,21.3,5.1,30.12,WNW,299,7.0,11.0,49,0.00,,,0.00,Wunderground v.1.15,2013-02-18 02:39:00,
2013-02-17 21:40:00,21.2,5.0,30.13,WNW,294,7.0,8.0,49,0.00,,,0.00,Wunderground v.1.15,2013-02-18 02:40:00,
2013-02-17 21:41:00,21.2,5.0,30.13,NW,315,14.0,14.0,49,0.00,,,0.00,Wunderground v.1.15,2013-02-18 02:41:00,
2013-02-17 21:44:00,21.3,5.1,30.13,WNW,292,7.0,14.0,49,0.00,,,0.00,Wunderground v.1.15,2013-02-18 02:44:00,
2013-02-17 21:45:00,21.3,5.1,30.13,West,275,6.0,14.0,49,0.00,,,0.00,Wunderground v.1.15,2013-02-18 02:45:00,
2013-02-17 21:46:00,21.3,5.1,30.13,WNW,298,6.0,14.0,49,0.00,,,0.00,Wunderground v.1.15,2013-02-18 02:46:00,
2013-02-17 21:49:00,21.3,5.1,30.13,WNW,297,6.0,14.0,49,0.00,,,0.00,Wunderground v.1.15,2013-02-18 02:49:00,
2013-02-17 21:50:00,21.3,5.1,30.13,WNW,298,3.0,9.0,49,0.00,,,0.00,Wunderground v.1.15,2013-02-18 02:50:00,
2013-02-17 21:51:00,21.3,5.1,30.13,NNW,335,6.0,9.0,49,0.00,,,0.00,Wunderground v.1.15,2013-02-18 02:51:00,
2013-02-17 21:54:00,21.3,5.1,30.13,West,275,5.0,9.0,49,0.00,,,0.00,Wunderground v.1.15,2013-02-18 02:54:00,
2013-02-17 21:55:00,21.3,5.1,30.13,WNW,292,7.0,9.0,49,0.00,,,0.00,Wunderground v.1.15,2013-02-18 02:55:00,
2013-02-17 21:56:00,21.3,5.1,30.13,NW,304,7.0,9.0,49,0.00,,,0.00,Wunderground v.1.15,2013-02-18 02:56:00,
2013-02-17 21:59:00,21.2,5.0,30.13,WNW,284,7.0,11.0,49,0.00,,,0.00,Wunderground v.1.15,2013-02-18 02:59:00,
2013-02-17 22:00:00,21.2,5.0,30.13,WNW,294,6.0,6.0,49,0.00,,,0.00,Wunderground v.1.15,2013-02-18 03:00:00,
2013-02-17 22:01:00,21.2,5.0,30.13,WNW,298,7.0,11.0,49,0.00,,,0.00,Wunderground v.1.15,2013-02-18 03:01:00,
2013-02-17 22:02:00,21.2,5.0,30.13,WNW,302,9.0,11.0,49,0.00,,,0.00,Wunderground v.1.15,2013-02-18 03:02:00,
2013-02-17 22:04:00,21.2,5.0,30.13,WNW,294,7.0,11.0,49,0.00,,,0.00,Wunderground v.1.15,2013-02-18 03:04:00,
2013-02-17 22:05:00,21.2,5.0,30.13,WNW,291,9.0,11.0,49,0.00,,,0.00,Wunderground v.1.15,2013-02-18 03:05:00,
2013-02-17 22:06:00,21.1,4.9,30.14,NW,306,7.0,11.0,49,0.00,,,0.00,Wunderground v.1.15,2013-02-18 03:06:00,
2013-02-17 22:07:00,21.1,4.9,30.14,WNW,292,8.0,11.0,49,0.00,,,0.00,Wunderground v.1.15,2013-02-18 03:07:00,
2013-02-17 22:10:00,21.1,4.9,30.13,NW,312,8.0,8.0,49,0.00,,,0.00,Wunderground v.1.15,2013-02-18 03:10:00,
2013-02-17 22:12:00,21.1,4.9,30.13,NW,306,7.0,13.0,49,0.00,,,0.00,Wunderground v.1.15,2013-02-18 03:12:00,
2013-02-17 22:15:00,21.2,5.0,30.13,NW,310,7.0,13.0,49,0.00,,,0.00,Wunderground v.1.15,2013-02-18 03:15:00,
2013-02-17 22:17:00,21.1,4.9,30.13,West,264,6.0,13.0,49,0.00,,,0.00,Wunderground v.1.15,2013-02-18 03:17:00,
2013-02-17 22:18:00,21.1,4.9,30.13,West,279,11.0,13.0,49,0.00,,,0.00,Wunderground v.1.15,2013-02-18 03:18:00,
2013-02-17 22:20:00,21.1,4.9,30.13,WNW,301,9.0,10.0,49,0.00,,,0.00,Wunderground v.1.15,2013-02-18 03:20:00,
2013-02-17 22:22:00,21.1,5.3,30.13,NW,326,7.0,12.0,50,0.00,,,0.00,Wunderground v.1.15,2013-02-18 03:22:00,
2013-02-17 22:23:00,21.0,5.2,30.13,NW,317,13.0,14.0,50,0.00,,,0.00,Wunderground v.1.15,2013-02-18 03:23:00,
2013-02-17 22:25:00,21.0,5.2,30.13,WNW,293,7.0,14.0,50,0.00,,,0.00,Wunderground v.1.15,2013-02-18 03:25:00,
2013-02-17 22:26:00,21.0,5.2,30.13,WNW,288,6.0,14.0,50,0.00,,,0.00,Wunderground v.1.15,2013-02-18 03:26:00,
2013-02-17 22:27:00,21.0,5.2,30.13,West,273,5.0,14.0,50,0.00,,,0.00,Wunderground v.1.15,2013-02-18 03:27:00,
2013-02-17 22:28:00,20.9,5.2,30.13,West,275,5.0,14.0,50,0.00,,,0.00,Wunderground v.1.15,2013-02-18 03:28:00,
2013-02-17 22:31:00,20.9,5.2,30.13,NW,311,6.0,10.0,50,0.00,,,0.00,Wunderground v.1.15,2013-02-18 03:31:00,
2013-02-17 22:32:00,20.9,5.2,30.13,WNW,291,9.0,11.0,50,0.00,,,0.00,Wunderground v.1.15,2013-02-18 03:32:00,
2013-02-17 22:34:00,20.9,5.2,30.13,WNW,300,5.0,11.0,50,0.00,,,0.00,Wunderground v.1.15,2013-02-18 03:34:00,
2013-02-17 22:36:00,20.9,5.2,30.14,WNW,292,5.0,11.0,50,0.00,,,0.00,Wunderground v.1.15,2013-02-18 03:36:00,
2013-02-17 22:37:00,20.8,5.1,30.13,WNW,302,3.0,11.0,50,0.00,,,0.00,Wunderground v.1.15,2013-02-18 03:37:00,
2013-02-17 22:39:00,20.8,5.1,30.13,NW,304,7.0,11.0,50,0.00,,,0.00,Wunderground v.1.15,2013-02-18 03:39:00,
2013-02-17 22:41:00,20.8,5.1,30.13,NW,323,5.0,8.0,50,0.00,,,0.00,Wunderground v.1.15,2013-02-18 03:41:00,
2013-02-17 22:42:00,20.7,5.0,30.14,West,275,5.0,9.0,50,0.00,,,0.00,Wunderground v.1.15,2013-02-18 03:42:00,
2013-02-17 22:43:00,20.7,5.0,30.14,WNW,292,1.0,9.0,50,0.00,,,0.00,Wunderground v.1.15,2013-02-18 03:43:00,
2013-02-17 22:44:00,20.7,5.4,30.13,WNW,290,8.0,9.0,51,0.00,,,0.00,Wunderground v.1.15,2013-02-18 03:44:00,
2013-02-17 22:46:00,20.7,5.4,30.14,WNW,288,2.0,10.0,51,0.00,,,0.00,Wunderground v.1.15,2013-02-18 03:46:00,
2013-02-17 22:47:00,20.7,5.4,30.14,WNW,291,1.0,10.0,51,0.00,,,0.00,Wunderground v.1.15,2013-02-18 03:47:00,
2013-02-17 22:48:00,20.7,5.4,30.14,WNW,288,4.0,10.0,51,0.00,,,0.00,Wunderground v.1.15,2013-02-18 03:48:00,
2013-02-17 22:50:00,20.6,5.3,30.14,WNW,284,4.0,6.0,51,0.00,,,0.00,Wunderground v.1.15,2013-02-18 03:50:00,
2013-02-17 22:51:00,20.6,5.3,30.14,SW,232,5.0,6.0,51,0.00,,,0.00,Wunderground v.1.15,2013-02-18 03:51:00,
2013-02-17 22:52:00,20.6,5.3,30.13,WNW,296,9.0,9.0,51,0.00,,,0.00,Wunderground v.1.15,2013-02-18 03:52:00,
2013-02-17 22:53:00,20.6,5.3,30.13,West,281,6.0,9.0,51,0.00,,,0.00,Wunderground v.1.15,2013-02-18 03:53:00,
2013-02-17 22:55:00,20.6,5.3,30.14,WNW,286,3.0,9.0,51,0.00,,,0.00,Wunderground v.1.15,2013-02-18 03:55:00,
2013-02-17 22:56:00,20.6,5.3,30.14,WNW,296,3.0,9.0,51,0.00,,,0.00,Wunderground v.1.15,2013-02-18 03:56:00,
2013-02-17 22:57:00,20.6,5.3,30.14,West,265,5.0,9.0,51,0.00,,,0.00,Wunderground v.1.15,2013-02-18 03:57:00,
2013-02-17 22:58:00,20.6,5.3,30.14,NW,306,3.0,9.0,51,0.00,,,0.00,Wunderground v.1.15,2013-02-18 03:58:00,
2013-02-17 23:00:00,20.5,5.2,30.14,NNW,335,3.0,4.0,51,0.00,,,0.00,Wunderground v.1.15,2013-02-18 04:00:00,
2013-02-17 23:01:00,20.5,5.2,30.14,West,280,5.0,6.0,51,0.00,,,0.00,Wunderground v.1.15,2013-02-18 04:01:00,
2013-02-17 23:02:00,20.5,5.2,30.14,WNW,299,8.0,8.0,51,0.00,,,0.00,Wunderground v.1.15,2013-02-18 04:02:00,
2013-02-17 23:03:00,20.5,5.2,30.14,WNW,296,4.0,9.0,51,0.00,,,0.00,Wunderground v.1.15,2013-02-18 04:03:00,
2013-02-17 23:06:00,20.5,5.2,30.14,NNW,330,6.0,9.0,51,0.00,,,0.00,Wunderground v.1.15,2013-02-18 04:06:00,
2013-02-17 23:07:00,20.6,5.3,30.14,West,279,6.0,9.0,51,0.00,,,0.00,Wunderground v.1.15,2013-02-18 04:07:00,
2013-02-17 23:08:00,20.6,5.3,30.14,West,280,5.0,9.0,51,0.00,,,0.00,Wunderground v.1.15,2013-02-18 04:08:00,
2013-02-17 23:09:00,20.6,5.3,30.14,WNW,300,4.0,9.0,51,0.00,,,0.00,Wunderground v.1.15,2013-02-18 04:09:00,
2013-02-17 23:11:00,20.6,5.3,30.14,WNW,289,2.0,5.0,51,0.00,,,0.00,Wunderground v.1.15,2013-02-18 04:11:00,
2013-02-17 23:12:00,20.6,5.3,30.14,WNW,302,0.0,5.0,51,0.00,,,0.00,Wunderground v.1.15,2013-02-18 04:12:00,
2013-02-17 23:13:00,20.6,5.3,30.14,WNW,290,1.0,5.0,51,0.00,,,0.00,Wunderground v.1.15,2013-02-18 04:13:00,
2013-02-17 23:14:00,20.6,5.3,30.14,NW,304,2.0,5.0,51,0.00,,,0.00,Wunderground v.1.15,2013-02-18 04:14:00,
2013-02-17 23:16:00,20.7,5.0,30.14,West,279,4.0,8.0,50,0.00,,,0.00,Wunderground v.1.15,2013-02-18 04:16:00,
2013-02-17 23:17:00,20.7,5.0,30.14,WNW,288,5.0,8.0,50,0.00,,,0.00,Wunderground v.1.15,2013-02-18 04:17:00,
2013-02-17 23:18:00,20.7,5.4,30.14,WSW,244,3.0,8.0,51,0.00,,,0.00,Wunderground v.1.15,2013-02-18 04:18:00,
2013-02-17 23:21:00,20.7,5.4,30.15,NW,304,3.0,6.0,51,0.00,,,0.00,Wunderground v.1.15,2013-02-18 04:21:00,
2013-02-17 23:22:00,20.7,5.4,30.15,West,281,4.0,6.0,51,0.00,,,0.00,Wunderground v.1.15,2013-02-18 04:22:00,
2013-02-17 23:23:00,20.6,5.3,30.15,West,281,2.0,6.0,51,0.00,,,0.00,Wunderground v.1.15,2013-02-18 04:23:00,
2013-02-17 23:24:00,20.6,5.3,30.15,WNW,301,7.0,7.0,51,0.00,,,0.00,Wunderground v.1.15,2013-02-18 04:24:00,
2013-02-17 23:26:00,20.6,5.3,30.15,WNW,282,2.0,7.0,51,0.00,,,0.00,Wunderground v.1.15,2013-02-18 04:26:00,
2013-02-17 23:27:00,20.6,5.3,30.15,West,277,2.0,7.0,51,0.00,,,0.00,Wunderground v.1.15,2013-02-18 04:27:00,
2013-02-17 23:28:00,20.6,5.3,30.15,West,277,2.0,7.0,51,0.00,,,0.00,Wunderground v.1.15,2013-02-18 04:28:00,
2013-02-17 23:29:00,20.6,5.3,30.15,WSW,251,3.0,7.0,51,0.00,,,0.00,Wunderground v.1.15,2013-02-18 04:29:00,
2013-02-17 23:31:00,20.6,5.3,30.15,West,261,4.0,5.0,51,0.00,,,0.00,Wunderground v.1.15,2013-02-18 04:31:00,
2013-02-17 23:33:00,20.5,5.0,30.15,West,277,0.0,7.0,51,0.00,,,0.00,weatherlink.com 1.10,2013-02-18 04:33:00,
2013-02-17 23:34:00,20.5,5.2,30.16,West,277,1.0,5.0,51,0.00,,,0.00,Wunderground v.1.15,2013-02-18 04:34:00,
2013-02-17 23:37:00,20.4,5.1,30.16,WSW,258,3.0,5.0,51,0.00,,,0.00,Wunderground v.1.15,2013-02-18 04:37:00,
2013-02-17 23:38:00,20.4,5.1,30.16,West,270,2.0,5.0,51,0.00,,,0.00,Wunderground v.1.15,2013-02-18 04:38:00,
2013-02-17 23:39:00,20.4,5.1,30.16,West,267,2.0,5.0,51,0.00,,,0.00,Wunderground v.1.15,2013-02-18 04:39:00,
2013-02-17 23:42:00,20.4,5.1,30.16,WNW,286,2.0,5.0,51,0.00,,,0.00,Wunderground v.1.15,2013-02-18 04:42:00,
2013-02-17 23:43:00,20.4,5.1,30.16,West,274,2.0,5.0,51,0.00,,,0.00,Wunderground v.1.15,2013-02-18 04:43:00,
2013-02-17 23:44:00,20.3,5.0,30.16,West,264,2.0,5.0,51,0.00,,,0.00,Wunderground v.1.15,2013-02-18 04:44:00,
2013-02-17 23:47:00,20.3,5.0,30.16,West,263,1.0,5.0,51,0.00,,,0.00,Wunderground v.1.15,2013-02-18 04:47:00,
2013-02-17 23:48:00,20.3,5.0,30.16,WSW,254,3.0,5.0,51,0.00,,,0.00,Wunderground v.1.15,2013-02-18 04:48:00,
2013-02-17 23:49:00,20.3,5.0,30.16,WNW,286,2.0,5.0,51,0.00,,,0.00,Wunderground v.1.15,2013-02-18 04:49:00,
2013-02-17 23:50:00,20.3,5.0,30.16,WNW,286,2.0,2.0,51,0.00,,,0.00,Wunderground v.1.15,2013-02-18 04:50:00,
2013-02-17 23:53:00,20.2,4.9,30.16,West,266,3.0,6.0,51,0.00,,,0.00,Wunderground v.1.15,2013-02-18 04:53:00,
2013-02-17 23:55:00,20.3,5.0,30.16,WNW,294,4.0,9.0,51,0.00,,,0.00,Wunderground v.1.15,2013-02-18 04:55:00,
2013-02-17 23:58:00,20.4,5.1,30.16,West,279,3.0,9.0,51,0.00,,,0.00,Wunderground v.1.15,2013-02-18 04:58:00,